Latitude: N 50° 09' 49" Longitude: W 05° 11' 53" Elevation: 168m ASL

There are 2 visitors online

Adverts

<- Previous Day | Today | Next Day ->

All Data for 07 February 2018

Time
A - D
Temp
A - D
Dew Point
A - D
Humidity
A - D
Pressure
A - D
Wind
A - D
Wind Dir Gust
A - D
Rain Rate
A - D
Rain Total
00:00 1.9 1.8 99 1021.9 3.8 N 13.6 0.8 0.0
00:01 1.9 1.8 99 1021.8 3.8 N 8.3 0.8 0.0
00:03 1.9 1.8 99 1021.9 3.8 N 8.3 0.8 0.0
00:04 1.9 1.8 99 1021.8 3.8 N 8.3 0.8 0.0
00:06 2.0 1.9 99 1021.6 6.9 N 7.6 0.0 0.0
00:07 1.9 1.8 99 1021.6 5.4 NW 6.9 0.0 0.0
00:09 2.0 1.9 99 1021.6 6.9 W 6.9 0.0 0.0
00:10 2.0 1.9 99 1021.6 10.7 N 10.7 0.0 0.0
00:12 2.0 1.9 99 1021.7 6.9 E 10.7 0.0 0.0
00:13 2.0 1.9 99 1021.8 5.4 N 10.7 0.0 0.0
00:14 2.0 1.9 99 1021.7 6.9 NW 10.7 0.0 0.0
00:16 2.0 1.9 99 1021.9 14.5 N 14.5 0.0 0.0
00:20 2.0 1.9 99 1022.1 9.8 N 15.2 0.0 0.0
00:21 2.0 1.9 99 1021.9 13.6 W 15.2 0.0 0.0
00:23 2.0 1.9 99 1021.8 13.6 N 15.2 0.0 0.0
00:24 1.9 1.8 99 1021.8 9.8 NW 15.2 0.0 0.0
00:26 1.9 1.8 99 1021.6 6.0 NW 15.2 0.0 0.0
00:27 1.9 1.8 99 1021.7 13.6 NW 15.2 0.0 0.0
00:28 1.8 1.7 99 1021.7 9.2 N 14.5 0.0 0.0
00:30 1.8 1.7 99 1021.8 8.3 NW 16.8 0.0 0.0
00:31 1.8 1.7 99 1022.0 16.8 NW 16.8 0.0 0.0
00:33 1.8 1.7 99 1022.1 9.8 NW 16.8 0.0 0.0
00:34 1.8 1.7 99 1022.0 10.7 NW 16.8 0.0 0.0
00:36 1.8 1.7 99 1022.0 9.8 W 16.8 0.0 0.0
00:37 1.8 1.7 99 1022.2 9.2 W 16.8 0.0 0.0
00:39 1.8 1.7 99 1022.1 6.9 NW 16.8 0.0 0.0
00:40 1.8 1.7 99 1022.1 6.9 N 16.8 0.0 0.0
00:41 1.8 1.7 99 1022.1 14.5 NW 15.9 0.0 0.0
00:42 1.8 1.7 99 1022.2 9.2 NW 15.9 0.0 0.0
00:43 1.8 1.7 99 1022.2 6.0 NW 15.9 0.0 0.0
00:45 1.8 1.7 99 1022.2 9.2 NW 14.5 0.0 0.0
00:46 1.8 1.7 99 1022.0 6.9 NW 14.5 0.0 0.0
00:47 1.8 1.7 99 1022.1 5.4 NW 14.5 0.0 0.0
00:48 1.8 1.7 99 1022.1 6.9 NW 14.5 0.0 0.0
00:49 1.8 1.7 99 1022.1 3.1 NW 14.5 0.0 0.0
00:50 1.8 1.7 99 1021.9 10.7 N 14.5 0.0 0.0
00:51 1.7 1.6 99 1022.0 7.6 NW 14.5 0.0 0.0
00:52 1.8 1.7 99 1021.8 8.3 NW 10.7 0.0 0.0
00:54 1.7 1.6 99 1021.7 6.9 N 10.7 0.0 0.0
00:55 1.7 1.6 99 1021.7 8.3 N 10.7 0.0 0.0
00:56 1.8 1.7 99 1021.7 9.2 NW 10.7 0.0 0.0
00:57 1.7 1.6 99 1021.8 4.5 NW 10.7 0.0 0.0
00:58 1.7 1.6 99 1021.7 5.4 NW 10.7 0.0 0.0
01:00 1.7 1.6 99 1021.8 6.9 N 9.2 0.0 0.0
01:01 1.7 1.6 99 1021.7 6.9 N 9.2 0.0 0.0
01:02 1.7 1.6 99 1021.7 6.9 N 9.2 0.0 0.0
01:03 1.7 1.6 99 1021.7 6.9 N 9.2 0.0 0.0
01:04 1.7 1.6 99 1021.9 6.9 N 9.2 0.0 0.0
01:05 1.7 1.6 99 1022.0 6.9 N 9.2 0.0 0.0
01:06 1.7 1.6 99 1021.9 3.1 NW 9.2 0.0 0.0
01:07 1.7 1.6 99 1022.1 3.8 NW 8.3 0.0 0.1
01:08 1.7 1.6 99 1022.1 3.1 NW 6.9 0.8 0.1
01:09 1.7 1.6 99 1022.2 6.0 N 13.0 0.8 0.1
01:10 1.7 1.6 99 1022.2 9.2 NW 13.0 0.8 0.1
01:11 1.7 1.6 99 1021.8 8.3 WNW 13.0 0.8 0.1
01:12 1.7 1.6 99 1022.1 12.1 NW 13.0 0.8 0.1
01:13 1.7 1.6 99 1022.0 10.7 NW 13.0 0.0 0.1
01:14 1.7 1.6 99 1021.9 9.8 NW 13.0 0.0 0.1
01:15 1.7 1.6 99 1021.8 10.7 NE 13.0 0.0 0.1
01:16 1.7 1.6 99 1022.0 10.7 NE 13.0 0.0 0.1
01:17 1.7 1.6 99 1021.8 10.7 N 13.0 0.0 0.1
01:18 1.6 1.5 99 1022.0 6.9 N 13.0 0.0 0.1
01:19 1.6 1.5 99 1022.1 5.4 N 12.1 0.0 0.1
01:21 1.6 1.5 99 1022.0 8.3 NE 12.1 0.0 0.1
01:23 1.6 1.5 99 1022.1 8.3 NE 10.7 0.0 0.1
01:24 1.6 1.5 99 1022.1 9.8 NE 10.7 0.0 0.1
01:25 1.6 1.5 99 1022.1 9.8 NE 10.7 0.0 0.1
01:26 1.6 1.5 99 1022.1 8.3 N 10.7 0.0 0.1
01:27 1.5 1.4 99 1022.2 9.8 N 10.7 0.0 0.1
01:28 1.5 1.4 99 1022.2 5.4 N 9.8 0.0 0.1
01:29 1.5 1.4 99 1022.1 5.4 N 9.8 0.0 0.1
01:30 1.5 1.4 99 1021.9 5.4 N 9.8 0.0 0.1
01:31 1.5 1.4 99 1022.1 9.2 N 9.8 0.0 0.1
01:32 1.5 1.4 99 1022.2 3.8 N 9.8 0.0 0.1
01:34 1.4 1.3 99 1022.1 6.0 N 9.8 0.0 0.1
01:35 1.4 1.3 99 1022.1 4.5 NW 9.8 0.0 0.1
01:36 1.4 1.3 99 1022.1 5.4 NW 9.8 0.0 0.1
01:37 1.4 1.3 99 1022.1 4.5 NW 9.8 0.0 0.1
01:38 1.4 1.3 99 1022.1 1.6 NW 9.2 0.0 0.1
01:39 1.4 1.3 99 1022.1 3.1 NW 9.2 0.0 0.1
01:40 1.4 1.3 99 1022.2 2.2 NW 9.2 0.0 0.1
01:41 1.4 1.3 99 1022.2 4.5 NW 6.9 0.0 0.1
01:42 1.4 1.3 99 1022.1 3.1 NW 6.9 0.0 0.1
01:43 1.4 1.3 99 1022.1 3.8 NW 6.0 0.0 0.1
01:44 1.4 1.3 99 1022.1 3.8 NW 6.0 0.0 0.1
01:45 1.4 1.3 99 1022.0 5.4 NW 6.0 0.0 0.1
01:46 1.3 1.2 99 1022.0 2.2 NW 6.0 0.0 0.1
01:48 1.4 1.3 99 1021.9 3.8 E 6.0 0.0 0.1
01:49 1.4 1.3 99 1022.0 2.2 E 6.0 0.0 0.1
01:50 1.3 1.2 99 1022.1 3.8 N 6.0 0.0 0.1
01:51 1.3 1.2 99 1022.2 4.5 N 6.0 0.0 0.1
01:52 1.3 1.2 99 1022.0 6.0 NW 6.0 0.0 0.1
01:53 1.4 1.3 99 1022.0 4.5 N 6.0 0.0 0.1
01:54 1.4 1.3 99 1021.8 1.6 N 6.0 0.0 0.1
01:55 1.4 1.3 99 1022.0 5.4 NW 6.0 0.0 0.1
01:56 1.4 1.3 99 1022.1 5.4 NW 6.0 0.0 0.1
01:57 1.4 1.3 99 1022.1 4.5 N 6.0 0.0 0.1
01:58 1.3 1.2 99 1022.0 6.0 NW 6.0 0.0 0.1
01:59 1.4 1.3 99 1022.0 6.9 NW 6.9 0.0 0.1
02:00 1.4 1.3 99 1022.0 6.9 NW 6.9 0.0 0.1
02:01 1.4 1.3 99 1022.0 6.9 NW 6.9 0.0 0.1
02:02 1.4 1.3 99 1021.9 6.9 NW 6.9 0.0 0.1
02:03 1.4 1.3 99 1021.9 6.9 NW 6.9 0.0 0.1
02:04 1.4 1.3 99 1021.8 6.9 NW 6.9 0.0 0.1
02:06 1.4 1.3 99 1022.0 9.2 NW 9.2 0.0 0.1
02:07 1.4 1.3 99 1022.0 7.6 NW 9.2 0.0 0.1
02:08 1.4 1.3 99 1022.0 10.7 N 10.7 0.0 0.1
02:09 1.5 1.4 99 1022.2 9.8 NW 13.0 0.0 0.1
02:10 1.5 1.4 99 1022.1 9.2 NW 13.0 0.0 0.1
02:11 1.5 1.4 99 1022.0 9.2 NW 13.0 0.0 0.1
02:12 1.6 1.5 99 1022.1 6.0 NW 13.0 0.0 0.1
02:13 1.6 1.5 99 1022.1 9.2 NW 13.0 0.0 0.1
02:14 1.6 1.5 99 1022.1 9.2 N 13.0 0.0 0.1
02:15 1.6 1.5 99 1022.0 7.6 N 13.0 0.0 0.1
02:16 1.7 1.6 99 1022.1 11.4 NW 13.0 0.0 0.1
02:17 1.7 1.6 99 1022.2 6.9 N 13.0 0.0 0.1
02:18 1.7 1.6 99 1022.1 8.3 N 13.0 0.0 0.1
02:20 1.7 1.6 99 1022.1 6.0 NW 13.0 0.0 0.1
02:21 1.7 1.6 99 1022.2 9.8 N 13.0 0.0 0.1
02:22 1.7 1.6 99 1022.2 10.7 NW 13.0 0.0 0.1
02:23 1.8 1.7 99 1022.1 9.8 NW 13.0 0.0 0.1
02:24 1.8 1.7 99 1022.1 8.3 NW 11.4 0.0 0.1
02:25 1.8 1.7 99 1022.2 6.9 NW 11.4 0.0 0.1
02:26 1.8 1.7 99 1022.0 9.2 NW 11.4 0.0 0.1
02:27 1.8 1.7 99 1022.1 9.8 NW 10.7 0.0 0.1
02:28 1.9 1.8 99 1022.2 8.3 NW 10.7 0.0 0.1
02:29 1.9 1.8 99 1022.0 6.9 NW 10.7 0.0 0.1
02:30 1.9 1.8 99 1022.1 6.0 NW 10.7 0.0 0.1
02:31 1.9 1.8 99 1022.1 8.3 N 10.7 0.0 0.1
02:35 1.9 1.8 99 1022.1 9.2 NW 9.8 0.0 0.1
02:36 1.9 1.8 99 1022.2 6.9 NW 9.8 0.0 0.1
02:37 1.9 1.8 99 1022.1 9.8 NW 9.8 0.0 0.1
02:39 1.9 1.8 99 1022.1 15.2 NW 15.2 0.0 0.1
02:40 2.0 1.9 99 1022.2 8.3 N 15.2 0.0 0.1
02:41 2.0 1.9 99 1022.2 11.4 N 15.2 0.0 0.1
02:42 2.0 1.9 99 1022.3 12.1 N 15.2 0.0 0.1
02:43 2.0 1.9 99 1022.2 7.6 NW 15.2 0.0 0.1
02:44 2.0 1.9 99 1022.3 9.2 N 15.2 0.0 0.1
02:45 2.0 1.9 99 1022.1 12.1 NW 15.2 0.0 0.1
02:46 2.0 1.9 99 1022.0 12.1 NW 15.2 0.0 0.1
02:47 2.0 1.9 99 1022.1 9.8 NW 15.2 0.0 0.1
02:48 2.0 1.9 99 1022.1 11.4 NW 15.2 0.0 0.1
02:49 2.0 1.9 99 1022.1 8.3 W 12.1 0.0 0.1
02:50 2.1 2.0 99 1022.2 9.2 NW 12.1 0.0 0.1
02:51 2.0 1.9 99 1022.2 7.6 NW 12.1 0.0 0.1
02:52 2.0 1.9 99 1022.2 7.6 NW 12.1 0.0 0.1
02:53 2.1 2.0 99 1022.2 6.0 NW 12.1 0.0 0.1
02:54 2.0 1.9 99 1022.2 5.4 N 12.1 0.0 0.1
02:55 2.1 2.0 99 1022.0 8.3 NW 12.1 0.0 0.1
02:56 2.0 1.9 99 1022.3 9.2 NW 11.4 0.0 0.1
02:58 2.1 2.0 99 1022.3 10.7 NW 10.7 0.0 0.1
02:59 2.1 2.0 99 1022.3 7.6 NW 10.7 0.0 0.1
03:00 2.1 2.0 99 1022.2 7.6 NW 10.7 0.0 0.1
03:01 2.0 1.9 99 1022.2 6.0 NW 10.7 0.0 0.1
03:02 2.0 1.9 99 1022.2 6.9 W 10.7 0.0 0.1
03:03 2.0 1.9 99 1022.0 10.7 NW 10.7 0.0 0.1
03:04 2.0 1.9 99 1022.1 9.2 W 10.7 0.0 0.1
03:05 2.0 1.9 99 1022.0 9.2 N 10.7 0.0 0.1
03:06 2.0 1.9 99 1022.2 9.8 NW 10.7 0.0 0.1
03:07 2.0 1.9 99 1022.2 6.0 NW 10.7 0.0 0.1
03:08 2.0 1.9 99 1022.2 9.2 N 10.7 0.0 0.1
03:09 2.0 1.9 99 1022.1 10.7 N 10.7 0.0 0.1
03:10 2.0 1.9 99 1022.1 11.4 N 11.4 0.0 0.1
03:11 2.0 1.9 99 1022.1 9.2 N 11.4 0.0 0.1
03:12 2.0 1.9 99 1022.1 6.9 NW 11.4 0.0 0.1
03:14 2.0 1.9 99 1022.1 8.3 N 12.1 0.0 0.1
03:15 2.0 1.9 99 1022.1 9.2 NW 12.1 0.0 0.1
03:16 2.0 1.9 99 1022.0 12.1 N 12.1 0.0 0.1
03:17 2.0 1.9 99 1022.1 8.3 N 12.1 0.0 0.1
03:18 2.0 1.9 99 1022.0 9.2 NW 12.1 0.0 0.1
03:19 2.0 1.9 99 1022.0 10.7 NW 12.1 0.0 0.1
03:20 2.0 1.9 99 1022.2 6.0 NW 12.1 0.0 0.1
03:21 2.0 1.9 99 1022.1 6.0 NW 12.1 0.0 0.1
03:22 2.0 1.9 99 1022.1 3.8 NW 12.1 0.0 0.1
03:23 2.0 1.9 99 1022.1 6.9 NW 12.1 0.0 0.1
03:24 2.0 1.7 98 1022.1 9.2 N 12.1 0.0 0.1
03:25 2.0 1.7 98 1022.1 6.9 NW 12.1 0.0 0.1
03:26 1.9 1.6 98 1022.0 3.8 NW 12.1 0.0 0.1
03:27 1.9 1.6 98 1022.2 5.4 NW 10.7 0.0 0.1
03:28 1.9 1.6 98 1022.0 6.9 NW 10.7 0.0 0.1
03:29 1.9 1.6 98 1022.0 7.6 N 9.2 0.0 0.1
03:30 1.9 1.6 98 1022.2 4.5 NW 9.2 0.0 0.1
03:32 1.8 1.5 98 1022.0 5.4 N 9.2 0.0 0.1
03:33 1.8 1.5 98 1022.0 6.0 NW 9.2 0.8 0.1
03:34 2.0 1.7 98 1022.1 6.0 NW 9.2 0.8 0.1
03:35 1.8 1.5 98 1022.1 4.5 W 7.6 0.8 0.1
03:36 1.8 1.5 98 1022.1 3.8 N 7.6 0.8 0.1
03:37 1.8 1.5 98 1022.0 5.4 N 7.6 0.8 0.1
03:38 1.8 1.5 98 1022.1 3.8 NW 7.6 0.0 0.1
03:39 1.7 1.4 98 1022.0 6.9 NW 7.6 0.0 0.1
03:40 1.7 1.4 98 1022.2 6.0 NW 6.9 0.0 0.1
03:41 1.7 1.4 98 1022.2 5.4 NW 6.9 0.0 0.1
03:42 1.7 1.4 98 1022.1 9.2 NW 9.2 0.0 0.1
03:43 1.7 1.4 98 1022.2 6.9 NW 9.2 0.0 0.1
03:44 1.7 1.4 98 1022.1 7.6 NW 9.2 0.0 0.1
03:45 1.7 1.4 98 1022.0 9.2 NW 9.2 0.0 0.1
03:46 1.8 1.5 98 1022.2 9.2 NW 9.2 0.0 0.1
03:47 1.7 1.4 98 1022.1 6.0 NW 9.2 0.0 0.1
03:48 1.8 1.5 98 1022.0 7.6 NW 9.2 0.0 0.1
03:49 1.7 1.3 97 1022.0 6.0 NW 9.2 0.0 0.1
03:50 1.8 1.5 98 1022.0 4.5 NW 9.2 0.0 0.1
03:51 1.8 1.5 98 1022.1 8.3 NW 9.2 0.0 0.1
03:53 1.8 1.4 97 1022.1 6.0 NW 9.2 0.0 0.1
03:54 1.8 1.4 97 1022.0 6.9 NW 9.2 0.0 0.1
03:55 1.8 1.4 97 1022.1 9.8 NW 9.8 0.0 0.1
03:56 1.8 1.4 97 1022.0 7.6 NW 9.8 0.0 0.1
03:57 1.8 1.4 97 1022.1 6.0 N 9.8 0.0 0.1
03:58 1.8 1.4 97 1022.1 6.0 NW 9.8 0.0 0.1
03:59 1.8 1.4 97 1022.0 11.4 N 11.4 0.0 0.1
04:00 1.8 1.4 97 1022.2 11.4 N 11.4 0.0 0.1
04:01 1.8 1.4 97 1022.0 11.4 N 11.4 0.0 0.1
04:03 1.8 1.4 97 1022.0 11.4 N 11.4 0.0 0.1
04:04 1.8 1.4 97 1021.9 11.4 N 11.4 0.0 0.1
04:05 1.8 1.4 97 1022.0 11.4 N 11.4 0.0 0.1
04:06 1.8 1.4 97 1022.0 6.0 NW 11.4 0.0 0.1
04:07 1.9 1.5 97 1022.0 9.2 NW 11.4 0.0 0.1
04:08 1.9 1.5 97 1022.1 5.4 NW 11.4 0.0 0.1
04:10 1.9 1.5 97 1022.2 6.0 N 11.4 0.0 0.1
04:11 1.9 1.5 97 1022.2 6.0 NW 11.4 0.0 0.1
04:12 1.9 1.5 97 1022.2 6.0 N 11.4 0.0 0.1
04:13 1.9 1.5 97 1022.2 8.3 W 11.4 0.0 0.1
04:14 1.9 1.5 97 1022.2 8.3 NW 11.4 0.0 0.1
04:15 1.9 1.5 97 1022.2 6.9 N 11.4 0.0 0.1
04:16 1.8 1.4 97 1022.2 5.4 NW 9.2 0.0 0.1
04:17 1.8 1.4 97 1022.1 5.4 NW 9.2 0.0 0.1
04:18 1.8 1.4 97 1022.2 4.5 N 8.3 0.0 0.1
04:19 1.9 1.5 97 1022.2 5.4 NW 8.3 0.0 0.1
04:20 1.8 1.4 97 1022.2 4.5 NW 8.3 0.0 0.1
04:21 1.8 1.4 97 1022.2 5.4 N 8.3 0.0 0.1
04:22 1.8 1.2 96 1022.2 6.0 NW 8.3 0.0 0.1
04:23 1.8 1.4 97 1022.2 6.0 W 8.3 0.0 0.1
04:24 1.8 1.2 96 1022.0 6.0 NW 6.9 0.0 0.1
04:25 1.8 1.2 96 1022.2 3.8 NW 6.0 0.0 0.1
04:26 1.8 1.2 96 1022.3 5.4 NW 6.0 0.0 0.1
04:27 1.8 1.2 96 1022.1 6.0 NW 6.0 0.0 0.1
04:29 1.8 1.2 96 1022.3 4.5 NW 6.9 0.0 0.1
04:30 1.8 1.2 96 1022.3 3.8 NW 6.9 0.0 0.1
04:31 1.8 1.2 96 1022.2 4.5 NW 6.9 0.0 0.1
04:32 1.8 1.2 96 1022.2 9.2 NW 9.2 0.0 0.1
04:34 1.8 1.2 96 1022.2 5.4 NW 9.2 0.0 0.1
04:35 1.8 1.2 96 1022.1 3.8 NW 9.2 0.0 0.1
04:36 1.8 1.2 96 1022.2 7.6 NW 9.2 0.0 0.1
04:37 1.8 1.2 96 1022.1 3.8 NW 9.2 0.0 0.1
04:38 1.8 1.2 96 1022.0 5.4 W 9.2 0.0 0.1
04:39 1.9 1.3 96 1022.1 4.5 NW 9.2 0.0 0.1
04:40 1.8 1.2 96 1022.1 2.2 NW 9.2 0.0 0.1
04:41 1.8 1.2 96 1022.1 4.5 NW 9.2 0.0 0.1
04:42 1.9 1.3 96 1022.1 6.0 NW 9.2 0.0 0.1
04:43 1.9 1.3 96 1022.0 4.5 W 9.2 0.0 0.1
04:44 1.9 1.3 96 1022.1 8.3 NW 8.3 0.0 0.1
04:45 1.9 1.3 96 1022.2 6.0 NW 8.3 0.0 0.1
04:46 1.9 1.3 96 1022.2 8.3 NW 8.3 0.0 0.1
04:47 1.9 1.3 96 1022.1 5.4 NW 8.3 0.0 0.1
04:48 1.9 1.3 96 1022.2 9.2 NW 9.2 0.0 0.1
04:49 1.9 1.3 96 1022.2 8.3 N 9.2 0.0 0.1
04:50 1.9 1.3 96 1022.1 8.3 N 9.2 0.0 0.1
04:51 1.9 1.3 96 1022.0 12.1 N 12.1 0.0 0.1
04:52 2.0 1.4 96 1022.2 10.7 NW 12.1 0.0 0.1
04:54 2.0 1.4 96 1022.0 12.1 NW 12.1 0.0 0.1
04:55 2.0 1.4 96 1022.0 7.6 NW 12.1 0.0 0.1
04:56 2.0 1.4 96 1022.0 6.0 NW 12.1 0.0 0.1
04:57 2.0 1.4 96 1022.1 9.2 NW 12.1 0.0 0.1
04:58 2.0 1.4 96 1022.0 12.1 NW 12.1 0.0 0.1
04:59 2.0 1.4 96 1022.1 3.1 NW 12.1 0.0 0.1
05:00 2.0 1.4 96 1022.1 3.1 NW 12.1 0.0 0.1
05:01 2.0 1.4 96 1022.0 3.1 NW 12.1 0.0 0.1
05:02 2.0 1.4 96 1022.0 3.1 NW 12.1 0.0 0.1
05:03 2.0 1.4 96 1022.0 3.1 NW 12.1 0.0 0.1
05:04 2.0 1.4 96 1022.0 3.1 NW 12.1 0.0 0.1
05:05 2.1 1.5 96 1021.9 6.0 NW 12.1 0.0 0.1
05:06 2.1 1.5 96 1022.1 5.4 NW 12.1 0.0 0.1
05:07 2.1 1.5 96 1022.0 5.4 NW 12.1 0.0 0.1
05:08 2.1 1.5 96 1022.1 6.9 NW 6.9 0.0 0.1
05:09 2.1 1.5 96 1022.0 4.5 N 6.9 0.0 0.1
05:10 2.1 1.5 96 1021.9 4.5 NW 6.9 0.0 0.1
05:11 2.1 1.5 96 1022.0 6.0 NW 6.9 0.0 0.1
05:12 2.1 1.5 96 1022.0 7.6 N 7.6 0.0 0.1
05:13 2.1 1.5 96 1022.2 4.5 N 7.6 0.0 0.1
05:14 2.1 1.5 96 1022.1 6.0 N 7.6 0.0 0.1
05:16 2.1 1.5 96 1022.0 4.5 NW 7.6 0.0 0.1
05:17 2.1 1.5 96 1022.1 3.8 NW 7.6 0.0 0.1
05:18 2.1 1.5 96 1022.1 3.1 NW 7.6 0.0 0.1
05:19 2.1 1.5 96 1022.1 5.4 NW 7.6 0.0 0.1
05:20 2.1 1.5 96 1022.0 6.0 NW 7.6 0.0 0.1
05:21 2.1 1.5 96 1022.2 4.5 N 7.6 0.0 0.1
05:22 2.1 1.5 96 1022.2 5.4 N 7.6 0.0 0.1
05:23 2.1 1.5 96 1022.1 2.2 NW 6.9 0.0 0.1
05:24 2.1 1.5 96 1022.2 8.3 NE 8.3 0.0 0.1
05:25 2.1 1.5 96 1022.1 3.8 N 8.3 0.8 0.2
05:26 2.1 1.5 96 1022.1 3.1 N 8.3 0.8 0.2
05:27 2.1 1.5 96 1022.0 3.8 N 8.3 0.8 0.2
05:28 2.1 1.5 96 1022.1 5.4 NW 8.3 0.8 0.2
05:29 2.1 1.5 96 1022.0 3.1 N 8.3 0.8 0.2
05:30 2.1 1.5 96 1022.0 4.5 NE 8.3 0.0 0.2
05:31 2.0 1.4 96 1022.0 6.0 N 8.3 0.0 0.2
05:32 2.0 1.3 95 1021.9 6.0 NW 8.3 0.0 0.2
05:33 2.0 1.3 95 1021.9 8.3 NW 8.3 0.0 0.2
05:35 2.0 1.3 95 1022.0 5.4 NW 8.3 0.0 0.2
05:36 2.0 1.3 95 1022.0 10.7 NW 10.7 0.0 0.2
05:37 2.0 1.3 95 1021.8 7.6 NW 10.7 0.0 0.2
05:38 2.0 1.3 95 1021.8 5.4 N 10.7 0.0 0.2
05:39 2.0 1.3 95 1021.9 7.6 NE 10.7 0.0 0.2
05:40 2.0 1.3 95 1022.0 6.0 NW 10.7 0.0 0.2
05:41 2.0 1.4 96 1021.9 9.8 N 10.7 0.0 0.2
05:42 2.0 1.3 95 1021.9 6.9 NW 10.7 0.0 0.2
05:43 2.1 1.4 95 1022.1 8.3 NW 10.7 0.0 0.2
05:44 2.1 1.4 95 1022.1 6.0 NW 10.7 0.0 0.2
05:45 2.1 1.4 95 1021.9 9.2 NW 10.7 0.0 0.2
05:46 2.1 1.4 95 1021.9 6.0 NW 9.8 0.0 0.2
05:47 2.1 1.4 95 1021.9 6.9 NW 9.8 0.0 0.2
05:48 2.1 1.4 95 1021.9 6.9 NW 9.8 0.0 0.2
05:49 2.1 1.4 95 1022.1 5.4 NW 9.8 0.0 0.2
05:50 2.1 1.4 95 1022.2 6.0 NW 9.8 0.0 0.2
05:51 2.1 1.4 95 1022.2 10.7 NW 10.7 0.0 0.2
05:53 2.1 1.4 95 1022.1 13.0 NE 13.0 0.0 0.2
05:54 2.1 1.4 95 1022.1 17.4 N 17.4 0.0 0.2
05:55 2.1 1.4 95 1022.0 13.6 NE 17.4 0.0 0.2
05:56 2.1 1.4 95 1022.1 10.7 NW 17.4 0.0 0.2
05:57 2.0 1.3 95 1022.1 7.6 N 17.4 0.0 0.2
05:58 2.0 1.3 95 1022.1 13.0 N 17.4 0.0 0.2
05:59 2.0 1.3 95 1022.1 6.9 NW 17.4 0.0 0.2
06:00 2.0 1.3 95 1022.0 6.9 NW 17.4 0.0 0.2
06:01 2.0 1.3 95 1021.9 6.9 NW 17.4 0.0 0.2
06:02 2.0 1.3 95 1022.1 6.9 NW 17.4 0.0 0.2
06:03 2.0 1.3 95 1022.1 6.9 NW 17.4 0.0 0.2
06:04 2.0 1.3 95 1022.2 6.9 NW 13.6 0.0 0.2
06:05 1.9 1.2 95 1022.1 3.1 N 13.6 0.0 0.2
06:06 1.9 1.2 95 1022.0 5.4 N 13.0 0.0 0.2
06:07 1.9 1.2 95 1022.0 6.9 N 13.0 0.0 0.2
06:09 1.8 1.1 95 1022.0 3.8 N 6.9 0.0 0.2
06:11 1.8 1.1 95 1021.9 6.0 NW 6.9 0.0 0.2
06:12 1.8 1.1 95 1021.9 7.6 N 7.6 0.0 0.2
06:13 1.8 1.1 95 1022.1 4.5 NW 7.6 0.0 0.2
06:14 1.8 1.1 95 1022.0 3.8 NW 7.6 0.0 0.2
06:15 1.8 1.1 95 1022.0 4.5 NW 7.6 0.0 0.2
06:16 1.8 1.1 95 1022.0 3.8 NW 7.6 0.0 0.2
06:17 1.7 1.0 95 1022.1 6.9 NW 7.6 0.0 0.2
06:18 1.7 1.1 96 1021.9 5.4 NW 7.6 0.0 0.2
06:20 1.7 1.1 96 1022.0 4.5 N 7.6 0.0 0.2
06:21 1.7 1.1 96 1022.0 3.8 NW 7.6 0.0 0.2
06:22 1.7 1.1 96 1021.9 6.0 NW 7.6 0.0 0.2
06:23 1.7 1.1 96 1021.8 5.4 NW 6.9 0.0 0.2
06:24 1.8 1.2 96 1022.0 4.5 NW 6.9 0.0 0.2
06:25 1.7 1.1 96 1021.9 6.0 N 6.9 0.0 0.2
06:26 1.7 1.1 96 1022.0 5.4 N 6.9 0.0 0.2
06:27 1.8 1.2 96 1021.9 3.1 N 6.9 0.0 0.2
06:28 1.8 1.2 96 1022.0 3.8 NW 6.0 0.0 0.2
06:29 1.7 1.1 96 1021.9 3.8 NW 6.0 0.0 0.2
06:30 1.7 1.1 96 1021.9 3.1 NW 6.0 0.0 0.2
06:31 1.7 1.1 96 1021.8 5.4 NW 6.0 0.0 0.2
06:32 1.7 1.1 96 1021.9 4.5 NW 6.0 0.0 0.2
06:33 1.7 1.1 96 1022.0 3.8 NW 6.0 0.0 0.2
06:34 1.7 1.1 96 1022.0 4.5 NW 6.0 0.0 0.2
06:36 1.7 1.1 96 1021.9 3.8 NW 5.4 0.0 0.2
06:37 1.7 1.1 96 1021.9 4.5 NW 5.4 0.0 0.2
06:38 1.7 1.1 96 1021.9 3.1 NW 5.4 0.0 0.2
06:39 1.7 1.1 96 1022.0 2.2 N 5.4 0.0 0.2
06:40 1.7 1.1 96 1022.1 3.8 N 5.4 0.0 0.2
06:41 1.7 1.1 96 1021.9 4.5 N 5.4 0.0 0.2
06:42 1.7 1.1 96 1022.0 6.9 NW 6.9 0.0 0.2
06:43 1.7 1.1 96 1022.0 5.4 N 6.9 0.0 0.2
06:44 1.7 1.1 96 1022.0 3.8 N 6.9 0.0 0.2
06:45 1.7 1.1 96 1022.1 4.5 N 6.9 0.0 0.2
06:46 1.7 1.1 96 1021.9 4.5 N 6.9 0.0 0.2
06:47 1.7 1.1 96 1022.2 4.5 NE 6.9 0.0 0.2
06:48 1.7 1.1 96 1022.1 6.9 N 6.9 0.0 0.2
06:49 1.7 1.1 96 1022.0 5.4 N 6.9 0.0 0.2
06:50 1.7 1.1 96 1022.0 3.8 N 6.9 0.0 0.2
06:52 1.7 1.1 96 1021.7 4.5 N 6.9 0.0 0.2
06:53 1.7 1.1 96 1021.9 3.1 N 6.9 0.0 0.2
06:54 1.7 1.0 95 1021.8 3.8 N 6.9 0.0 0.2
06:55 1.6 0.9 95 1021.8 4.5 N 6.9 0.0 0.2
06:56 1.6 0.9 95 1021.9 4.5 N 6.9 0.0 0.2
06:57 1.6 0.9 95 1022.0 4.5 N 6.9 0.0 0.2
06:58 1.6 0.9 95 1022.0 4.5 N 6.9 0.0 0.2
06:59 1.6 0.9 95 1022.0 2.2 N 6.9 0.0 0.2
07:00 1.6 0.9 95 1022.0 2.2 N 4.5 0.0 0.2
07:01 1.6 0.9 95 1022.0 2.2 N 4.5 0.0 0.2
07:02 1.6 0.9 95 1022.1 2.2 N 4.5 0.0 0.2
07:03 1.6 0.9 95 1022.0 2.2 N 4.5 0.0 0.2
07:04 1.6 0.9 95 1022.0 2.2 N 4.5 0.0 0.2
07:05 1.4 0.7 95 1022.0 2.2 N 4.5 0.0 0.2
07:06 1.4 0.7 95 1022.2 2.2 N 4.5 0.0 0.2
07:07 1.4 0.7 95 1022.1 2.2 N 4.5 0.0 0.2
07:08 1.4 0.7 95 1022.1 2.2 N 3.1 0.0 0.2
07:09 1.4 0.7 95 1022.1 2.2 N 2.2 0.0 0.2
07:10 1.3 0.6 95 1022.1 2.2 N 2.2 0.0 0.2
07:11 1.3 0.6 95 1022.2 2.2 N 2.2 0.0 0.2
07:12 1.3 0.6 95 1022.1 2.2 N 3.1 0.0 0.2
07:13 1.3 0.6 95 1022.2 3.1 N 3.1 0.0 0.2
07:14 1.3 0.6 95 1022.2 3.1 N 3.1 0.0 0.2
07:15 1.3 0.6 95 1022.2 3.8 N 3.8 0.0 0.2
07:16 1.2 0.5 95 1022.3 4.5 N 4.5 0.0 0.2
07:17 1.2 0.5 95 1022.1 2.2 N 4.5 0.0 0.2
07:18 1.2 0.5 95 1022.1 3.8 N 4.5 0.0 0.2
07:19 1.2 0.5 95 1022.3 3.8 NW 4.5 0.0 0.2
07:20 1.2 0.5 95 1022.2 14.5 NW 14.5 0.0 0.2
07:21 1.2 0.6 96 1022.3 13.0 NW 14.5 0.0 0.2
07:23 1.3 0.7 96 1022.3 9.2 NW 14.5 0.0 0.2
07:24 1.3 0.7 96 1022.3 11.4 NW 14.5 0.0 0.2
07:25 1.4 0.8 96 1022.4 10.7 NW 14.5 0.0 0.2
07:26 1.4 0.8 96 1022.3 7.6 NW 14.5 0.0 0.2
07:27 1.5 0.9 96 1022.3 3.8 NW 14.5 0.0 0.2
07:28 1.5 0.9 96 1022.3 6.9 NW 14.5 0.0 0.2
07:29 1.5 0.9 96 1022.4 3.8 N 14.5 0.0 0.2
07:30 1.5 0.9 96 1022.4 6.9 N 14.5 0.0 0.2
07:31 1.6 1.0 96 1022.7 15.2 NE 15.2 0.0 0.2
07:32 1.6 1.0 96 1022.7 11.4 N 15.2 0.0 0.2
07:33 1.6 1.0 96 1022.6 9.8 N 15.2 0.0 0.2
07:34 1.6 1.0 96 1022.6 8.3 NE 15.2 0.0 0.2
07:35 1.6 1.0 96 1022.7 8.3 NE 15.2 0.0 0.2
07:36 1.6 1.0 96 1022.6 9.8 N 15.2 0.0 0.2
07:37 1.6 1.0 96 1022.7 8.3 N 15.2 0.0 0.2
07:38 1.6 1.0 96 1022.7 7.6 N 15.2 0.0 0.2
07:39 1.6 1.0 96 1022.7 7.6 NE 15.2 0.0 0.2
07:40 1.5 0.9 96 1022.6 7.6 NE 15.2 0.0 0.2
07:42 1.5 0.9 96 1022.7 7.6 NE 11.4 0.0 0.2
07:43 1.5 0.9 96 1022.7 6.9 NE 9.8 0.0 0.2
07:44 1.4 0.8 96 1022.8 6.0 NE 9.8 0.0 0.2
07:45 1.4 0.8 96 1022.7 6.9 N 9.8 0.0 0.2
07:46 1.4 0.8 96 1022.8 6.0 NE 8.3 0.0 0.2
07:47 1.3 0.7 96 1022.7 6.9 NE 8.3 0.0 0.2
07:48 1.3 0.7 96 1022.7 8.3 N 8.3 0.0 0.2
07:49 1.3 0.7 96 1022.8 6.0 N 8.3 0.0 0.2
07:50 1.2 0.6 96 1022.8 5.4 NE 8.3 0.0 0.2
07:51 1.2 0.6 96 1022.7 5.4 N 8.3 0.0 0.2
07:52 1.1 0.5 96 1022.7 4.5 NE 8.3 0.0 0.2
07:53 1.1 0.7 97 1022.7 4.5 NE 8.3 0.0 0.2
07:54 1.1 0.7 97 1022.8 3.8 N 8.3 0.0 0.2
07:56 1.0 0.6 97 1022.7 5.4 N 8.3 0.0 0.2
07:57 1.0 0.6 97 1022.7 3.8 NE 8.3 0.0 0.2
07:58 1.0 0.6 97 1022.8 4.5 NE 8.3 0.0 0.2
07:59 1.0 0.6 97 1022.8 3.8 NE 8.3 0.0 0.2
08:00 1.0 0.6 97 1022.7 3.8 NE 5.4 0.0 0.2
08:01 1.0 0.6 97 1022.8 3.8 NE 5.4 0.0 0.2
08:02 1.0 0.6 97 1022.7 3.8 NE 5.4 0.0 0.2
08:03 1.0 0.6 97 1022.8 3.8 NE 5.4 0.0 0.2
08:04 1.0 0.6 97 1022.9 3.8 NE 5.4 0.0 0.2
08:05 1.0 0.6 97 1022.8 3.8 NE 5.4 0.0 0.2
08:06 0.8 0.4 97 1022.8 3.1 NE 5.4 0.0 0.2
08:07 0.8 0.4 97 1022.9 2.2 NE 4.5 0.0 0.2
08:08 0.7 0.3 97 1022.8 2.2 NE 4.5 0.0 0.2
08:10 0.7 0.3 97 1022.9 2.2 NE 3.8 0.0 0.2
08:11 0.7 0.3 97 1022.8 2.2 NE 3.8 0.0 0.2
08:12 0.6 0.3 98 1022.9 1.6 NE 3.8 0.0 0.2
08:14 0.6 0.2 97 1022.9 1.6 NE 3.8 0.0 0.2
08:15 0.6 0.3 98 1022.9 0.7 NE 3.1 0.0 0.2
08:16 0.5 0.2 98 1022.9 2.2 NE 3.1 0.0 0.2
08:17 0.5 0.2 98 1023.0 3.1 NE 3.1 0.0 0.2
08:18 0.5 0.2 98 1022.7 3.1 NE 3.1 0.0 0.2
08:19 0.5 0.2 98 1022.9 2.2 NE 3.1 0.0 0.2
08:20 0.5 0.2 98 1022.8 2.2 NE 3.1 0.0 0.2
08:21 0.5 0.2 98 1022.8 1.6 NE 3.1 0.0 0.2
08:22 0.5 0.2 98 1023.0 1.6 NE 3.1 0.0 0.2
08:23 0.5 0.2 98 1022.9 1.6 NE 3.1 0.0 0.2
08:24 0.4 0.1 98 1023.0 1.6 NE 3.1 0.0 0.2
08:25 0.4 0.1 98 1022.9 1.6 NE 3.1 0.0 0.2
08:27 0.4 0.1 98 1022.8 1.6 NE 3.1 0.0 0.2
08:28 0.4 0.1 98 1022.8 0.7 NE 3.1 0.0 0.2
08:29 0.4 0.1 98 1022.9 1.6 NE 2.2 0.0 0.2
08:30 0.4 0.1 98 1023.1 1.6 NE 2.2 0.0 0.2
08:31 0.4 0.1 98 1023.1 0.7 NE 2.2 0.0 0.2
08:32 0.4 0.1 98 1023.1 1.6 NW 2.2 0.0 0.2
08:33 0.4 0.1 98 1023.0 1.6 NW 2.2 0.0 0.2
08:34 0.4 0.1 98 1023.0 0.7 NW 2.2 0.0 0.2
08:35 0.4 0.3 99 1022.9 0.7 NW 2.2 0.0 0.2
08:36 0.4 0.3 99 1023.0 2.2 NW 2.2 0.0 0.2
08:37 0.4 0.3 99 1023.1 1.6 NW 2.2 0.0 0.2
08:38 0.5 0.4 99 1022.9 2.2 NW 2.2 0.0 0.2
08:39 0.5 0.4 99 1023.1 1.6 NW 2.2 0.0 0.2
08:40 0.5 0.4 99 1022.8 2.2 NW 2.2 0.0 0.2
08:42 0.5 0.4 99 1022.9 0.7 NW 2.2 0.0 0.2
08:43 0.5 0.4 99 1022.8 0.7 NW 2.2 0.0 0.2
08:44 0.5 0.4 99 1023.1 1.6 NW 3.1 0.0 0.2
08:45 0.5 0.4 99 1023.0 2.2 NW 3.1 0.0 0.2
08:46 0.5 0.4 99 1022.9 6.9 N 6.9 0.0 0.2
08:47 0.5 0.4 99 1023.0 3.1 N 6.9 0.0 0.2
08:48 0.6 0.5 99 1023.0 3.1 NW 6.9 0.0 0.2
08:50 0.6 0.5 99 1023.0 5.4 NW 6.9 0.0 0.2
08:51 0.6 0.5 99 1023.2 3.1 N 6.9 0.0 0.2
08:52 0.6 0.5 99 1023.0 4.5 NW 6.9 0.0 0.2
08:53 0.7 0.6 99 1023.0 5.4 NW 6.9 0.0 0.2
08:54 0.7 0.6 99 1023.1 6.9 NW 6.9 0.0 0.2
08:55 0.7 0.6 99 1023.0 5.4 N 6.9 0.0 0.2
08:56 0.8 0.7 99 1023.1 6.0 NW 6.9 0.0 0.2
08:57 0.8 0.7 99 1023.2 6.9 N 6.9 0.0 0.2
08:58 0.9 0.8 99 1023.0 3.8 N 6.9 0.0 0.2
08:59 0.9 0.8 99 1023.1 8.3 NW 8.3 0.0 0.2
09:00 0.9 0.8 99 1023.1 8.3 NW 8.3 0.0 0.2
09:02 0.9 0.8 99 1023.3 8.3 NW 8.3 0.0 0.2
09:03 0.9 0.8 99 1023.3 8.3 NW 8.3 0.0 0.2
09:05 0.9 0.8 99 1023.3 8.3 NW 8.3 0.0 0.2
09:06 1.3 1.2 99 1023.2 6.0 N 8.3 0.0 0.2
09:07 1.3 1.2 99 1023.1 3.8 NW 8.3 0.0 0.2
09:08 1.4 1.3 99 1023.1 6.9 NW 8.3 0.0 0.2
09:09 1.4 1.3 99 1023.1 5.4 NW 8.3 0.0 0.2
09:10 1.4 1.3 99 1023.1 7.6 NW 8.3 0.0 0.2
09:12 1.5 1.4 99 1023.2 6.9 NW 8.3 0.0 0.2
09:13 1.6 1.5 99 1023.2 6.0 N 8.3 0.0 0.2
09:14 1.6 1.5 99 1023.2 6.0 NW 9.8 0.0 0.2
09:15 1.7 1.6 99 1023.2 7.6 NW 9.8 0.0 0.2
09:16 1.7 1.6 99 1023.2 5.4 N 9.8 0.0 0.2
09:17 1.7 1.6 99 1023.2 8.3 N 9.8 0.0 0.2
09:18 1.8 1.7 99 1023.2 8.3 NW 9.8 0.0 0.2
09:19 1.8 1.7 99 1023.3 6.9 NW 9.8 0.0 0.2
09:20 1.8 1.7 99 1023.2 3.8 NW 9.8 0.0 0.2
09:21 1.8 1.7 99 1023.2 5.4 W 9.8 0.0 0.2
09:22 1.9 1.8 99 1023.0 5.4 NW 9.8 0.0 0.2
09:23 1.9 1.8 99 1023.1 5.4 N 9.8 0.0 0.2
09:24 1.9 1.8 99 1023.0 3.8 N 8.3 0.0 0.2
09:25 2.0 1.9 99 1023.1 4.5 NW 8.3 0.0 0.2
09:26 2.0 1.9 99 1023.2 6.9 NW 8.3 0.0 0.2
09:27 2.0 1.9 99 1023.2 3.8 NW 8.3 0.0 0.2
09:28 2.0 1.9 99 1023.2 5.4 N 7.6 0.0 0.3
09:29 2.0 1.9 99 1023.2 3.8 N 7.6 0.8 0.3
09:30 2.0 1.9 99 1023.2 6.0 NE 7.6 0.8 0.3
09:31 2.0 1.9 99 1023.1 5.4 NE 7.6 0.8 0.3
09:32 2.0 1.9 99 1023.1 5.4 NE 7.6 0.8 0.3
09:33 2.1 1.8 98 1023.1 3.8 N 7.6 0.8 0.3
09:34 2.1 1.8 98 1023.1 4.5 NE 7.6 0.0 0.3
09:35 2.1 2.0 99 1023.2 3.8 NE 6.9 0.0 0.3
09:36 2.1 1.8 98 1023.1 3.1 NE 6.9 0.0 0.3
09:38 2.1 1.8 98 1023.1 4.5 NE 6.9 0.0 0.3
09:39 2.1 1.8 98 1023.1 3.8 NE 6.9 0.0 0.3
09:40 2.1 1.8 98 1023.3 4.5 NE 6.9 0.0 0.3
09:41 2.1 1.8 98 1023.1 5.4 NE 6.9 0.0 0.3
09:42 2.1 1.8 98 1023.3 5.4 N 6.9 0.0 0.3
09:43 2.1 1.8 98 1023.2 6.0 NE 6.0 0.0 0.3
09:44 2.1 1.8 98 1023.3 6.9 NE 6.9 0.0 0.3
09:45 2.1 1.8 98 1023.2 4.5 N 6.9 0.0 0.3
09:46 2.1 1.8 98 1023.5 8.3 N 8.3 0.0 0.3
09:47 2.1 1.8 98 1023.5 9.2 NW 9.2 0.0 0.3
09:48 2.1 1.8 98 1023.5 6.9 NW 9.2 0.0 0.3
09:49 2.1 1.8 98 1023.5 6.9 NW 9.2 0.0 0.3
09:50 2.1 1.8 98 1023.5 3.8 N 9.2 0.0 0.3
09:51 2.0 1.7 98 1023.3 6.0 N 9.2 0.0 0.3
09:52 2.0 1.7 98 1023.4 3.1 N 9.2 0.0 0.3
09:53 2.0 1.7 98 1023.4 2.2 NW 9.2 0.0 0.3
09:54 2.0 1.7 98 1023.3 4.5 N 9.2 0.0 0.3
09:55 2.0 1.7 98 1023.2 3.1 N 9.2 0.0 0.3
09:56 1.9 1.6 98 1023.2 4.5 NW 9.2 0.0 0.3
09:57 1.9 1.6 98 1023.2 3.8 NW 9.2 0.0 0.3
09:58 1.9 1.6 98 1023.2 4.5 NW 6.9 0.0 0.3
10:00 1.9 1.6 98 1023.2 5.4 NW 6.9 0.0 0.3
10:01 1.9 1.6 98 1023.1 5.4 NW 6.9 0.0 0.3
10:02 1.9 1.6 98 1023.2 5.4 NW 6.9 0.0 0.3
10:03 1.9 1.6 98 1023.3 5.4 NW 5.4 0.0 0.3
10:04 1.9 1.6 98 1023.1 5.4 NW 5.4 0.0 0.3
10:05 1.9 1.6 98 1023.3 5.4 NW 5.4 0.0 0.3
10:06 2.0 1.7 98 1023.3 6.0 NW 6.9 0.0 0.3
10:07 2.1 1.8 98 1023.3 8.3 NW 8.3 0.0 0.3
10:08 2.1 1.8 98 1023.3 4.5 NW 8.3 0.0 0.3
10:09 2.2 2.1 99 1023.3 6.9 NW 8.3 0.0 0.3
10:11 2.3 2.2 99 1023.3 4.5 NW 8.3 0.8 0.3
10:12 2.4 2.3 99 1023.3 4.5 NW 8.3 0.8 0.3
10:13 2.4 2.3 99 1023.3 4.5 NW 8.3 0.8 0.3
10:15 2.5 2.4 99 1023.4 5.4 NW 8.3 0.0 0.3
10:17 2.6 2.5 99 1023.3 6.0 NW 8.3 0.0 0.3
10:18 2.7 2.6 99 1023.4 6.0 N 8.3 0.0 0.3
10:19 2.8 2.7 99 1023.3 5.4 NW 8.3 0.0 0.3
10:20 2.8 2.7 99 1023.2 3.1 NW 8.3 0.0 0.3
10:21 2.9 2.8 99 1023.4 3.1 NW 6.9 0.0 0.3
10:22 2.9 2.8 99 1023.4 6.9 NW 6.9 0.0 0.3
10:24 3.0 2.7 98 1023.5 6.0 NW 6.9 0.0 0.3
10:25 3.0 2.7 98 1023.4 7.6 NW 7.6 0.0 0.3
10:26 3.1 2.8 98 1023.4 6.9 NW 7.6 0.0 0.3
10:27 3.2 2.9 98 1023.4 3.8 NW 7.6 0.8 0.4
10:28 3.2 2.9 98 1023.4 5.4 NW 7.6 0.8 0.4
10:29 3.3 3.0 98 1023.4 6.0 N 7.6 0.8 0.4
10:30 3.4 3.1 98 1023.5 9.2 NW 9.2 0.8 0.4
10:31 3.4 3.1 98 1023.4 5.4 NW 9.2 0.8 0.4
10:32 3.5 3.2 98 1023.5 10.7 NW 10.7 0.0 0.4
10:33 3.5 3.2 98 1023.5 10.7 N 10.7 0.0 0.4
10:34 3.6 3.3 98 1023.5 7.6 N 10.7 0.0 0.4
10:35 3.6 3.3 98 1023.5 10.7 NW 10.7 0.0 0.4
10:36 3.7 3.4 98 1023.5 8.3 NW 11.4 0.0 0.4
10:38 3.8 3.4 97 1023.6 6.9 NW 11.4 0.8 0.4
10:39 3.8 3.4 97 1023.5 6.0 NW 11.4 0.8 0.4
10:40 3.8 3.4 97 1023.6 6.0 NW 11.4 0.8 0.4
10:41 3.8 3.4 97 1023.5 6.9 NW 11.4 0.8 0.4
10:42 3.8 3.4 97 1023.6 4.5 NW 11.4 0.0 0.4
10:43 3.8 3.4 97 1023.6 5.4 W 11.4 0.0 0.4
10:44 3.8 3.4 97 1023.5 7.6 NW 11.4 0.0 0.4
10:45 3.9 3.5 97 1023.6 5.4 NW 11.4 0.0 0.4
10:46 3.9 3.3 96 1023.6 7.6 W 11.4 0.0 0.4
10:47 3.9 3.3 96 1023.5 4.5 NW 10.7 0.0 0.4
10:48 3.9 3.3 96 1023.6 4.5 NW 10.7 0.0 0.4
10:49 3.9 3.3 96 1023.7 5.4 W 10.7 0.8 0.5
10:50 4.0 3.4 96 1023.6 5.4 NW 10.7 0.8 0.5
10:51 3.9 3.3 96 1023.7 4.5 NW 10.7 0.8 0.5
10:52 3.9 3.3 96 1023.6 12.1 W 12.1 0.8 0.5
10:53 3.8 3.2 96 1023.6 7.6 W 12.1 0.8 0.5
10:54 3.8 3.2 96 1023.7 5.4 NW 12.1 0.0 0.5
10:55 3.7 3.1 96 1023.7 4.5 NW 12.1 0.0 0.5
10:56 3.7 3.1 96 1023.8 6.9 W 12.1 0.0 0.5
10:57 3.6 3.0 96 1023.8 7.6 W 12.1 0.0 0.6
10:58 3.6 3.0 96 1023.7 4.5 W 12.1 0.8 0.6
10:59 3.5 2.9 96 1023.7 6.9 W 12.1 0.8 0.6
11:00 3.5 2.9 96 1023.9 6.9 W 12.1 0.8 0.6
11:01 3.5 2.9 96 1023.9 6.9 W 12.1 0.8 0.6
11:02 3.5 2.9 96 1023.7 6.9 W 12.1 0.8 0.6
11:03 3.5 2.9 96 1023.7 6.9 W 7.6 0.0 0.6
11:04 3.5 2.9 96 1023.7 6.9 W 7.6 0.0 0.6
11:06 3.3 2.7 96 1023.7 6.0 NW 7.6 0.0 0.6
11:07 3.3 2.7 96 1023.7 5.4 W 7.6 0.0 0.6
11:08 3.4 2.8 96 1023.7 5.4 NW 6.9 0.0 0.6
11:09 3.4 2.8 96 1023.6 6.0 W 6.9 0.0 0.6
11:10 3.4 3.0 97 1023.7 4.5 W 6.9 0.0 0.6
11:11 3.5 3.1 97 1023.6 3.8 W 6.9 0.0 0.6
11:12 3.6 3.2 97 1023.5 3.8 NW 6.9 0.0 0.6
11:13 3.7 3.3 97 1023.6 6.0 NW 6.9 0.0 0.6
11:14 3.8 3.5 98 1023.6 3.1 NW 6.9 0.8 0.6
11:15 3.9 3.6 98 1023.5 1.6 NW 6.0 0.8 0.6
11:16 3.9 3.6 98 1023.6 3.8 NW 6.0 0.8 0.6
11:17 4.0 3.7 98 1023.5 4.5 NW 6.0 0.8 0.6
11:18 4.2 3.9 98 1023.5 4.5 NW 6.0 0.8 0.6
11:19 4.3 4.0 98 1023.6 3.1 NW 6.0 0.0 0.6
11:20 4.4 4.1 98 1023.5 5.4 NW 6.9 0.8 0.7
11:21 4.5 4.2 98 1023.5 5.4 NW 6.9 0.8 0.7
11:22 4.5 4.1 97 1023.5 5.4 NW 6.9 0.8 0.7
11:23 4.5 4.1 97 1023.7 4.5 NW 6.9 0.8 0.7
11:24 4.7 4.3 97 1023.6 6.0 N 6.9 0.8 0.7
11:25 4.7 4.3 97 1023.6 4.5 N 6.9 0.0 0.7
11:26 4.8 4.4 97 1023.6 3.8 NW 6.9 0.0 0.7
11:27 5.0 4.6 97 1023.5 3.1 NE 6.9 0.0 0.8
11:28 5.0 4.6 97 1023.5 3.8 N 6.9 0.8 0.8
11:29 5.1 4.7 97 1023.5 6.9 NE 6.9 0.8 0.8
11:30 5.1 4.5 96 1023.4 3.8 NE 6.9 1.5 0.8
11:31 5.1 4.5 96 1023.6 7.6 NW 7.6 1.5 0.8
11:32 5.1 4.4 95 1023.5 4.5 NE 7.6 1.5 0.9
11:33 5.1 4.4 95 1023.5 3.8 N 7.6 1.5 0.9
11:35 5.1 4.2 94 1023.5 3.8 NE 7.6 1.5 0.9
11:36 5.1 4.2 94 1023.4 4.5 NW 7.6 1.5 0.9
11:37 5.1 4.2 94 1023.4 3.8 N 7.6 1.5 0.9
11:38 5.2 4.3 94 1023.6 4.5 NW 7.6 2.3 1.1
11:39 5.2 4.3 94 1023.6 3.8 N 7.6 2.3 1.1
11:40 5.2 4.3 94 1023.5 4.5 N 7.6 3.0 1.2
11:41 5.2 4.3 94 1023.4 3.8 NE 7.6 3.0 1.2
11:42 5.2 4.3 94 1023.5 4.5 N 6.0 3.0 1.2
11:43 5.3 4.4 94 1023.5 4.5 N 6.0 2.3 1.3
11:44 5.4 4.5 94 1023.5 6.9 NW 6.9 2.3 1.3
11:45 5.4 4.4 93 1023.5 6.9 NW 6.9 1.5 1.3
11:46 5.5 4.5 93 1023.5 4.5 NW 6.9 1.5 1.3
11:47 5.6 4.6 93 1023.5 5.4 NW 6.9 2.3 1.4
11:48 5.6 4.6 93 1023.5 3.8 NW 6.9 1.5 1.4
11:49 5.6 4.6 93 1023.5 5.4 NW 6.9 2.3 1.4
11:50 5.6 4.6 93 1023.4 5.4 NW 6.9 1.5 1.5
11:51 5.6 4.6 93 1023.5 4.5 NW 6.9 2.3 1.5
11:52 5.6 4.6 93 1023.4 3.8 N 6.9 1.5 1.6
11:53 5.5 4.5 93 1023.5 3.8 N 6.9 2.3 1.6
11:54 5.5 4.5 93 1023.5 2.2 N 6.9 1.5 1.6
11:55 5.5 4.5 93 1023.5 3.1 N 6.0 2.3 1.6
11:56 5.4 4.2 92 1023.5 4.5 N 6.0 1.5 1.7
11:57 5.3 4.1 92 1023.6 2.2 N 6.0 2.3 1.7
11:58 5.4 4.2 92 1023.5 2.2 N 6.0 1.5 1.7
11:59 5.4 4.2 92 1023.5 2.2 N 6.0 1.5 1.7
12:00 5.4 4.2 92 1023.5 2.2 N 6.0 0.8 1.7
12:02 5.4 4.2 92 1023.4 2.2 N 6.0 0.0 1.7
12:03 5.4 4.2 92 1023.5 2.2 N 6.0 0.0 1.7
12:04 5.4 4.2 92 1023.4 2.2 N 6.0 0.0 1.7
12:05 5.4 4.2 92 1023.5 2.2 N 6.0 0.0 1.7
12:06 5.1 3.9 92 1023.5 3.8 W 4.5 3.0 2.0
12:07 5.1 3.9 92 1023.5 4.5 NW 4.5 3.0 2.0
12:08 5.1 3.9 92 1023.4 5.4 NW 5.4 3.8 2.0
12:09 5.0 3.8 92 1023.4 3.1 NW 5.4 3.8 2.0
12:11 5.0 3.7 91 1023.6 5.4 NW 5.4 1.5 2.1
12:12 5.0 3.7 91 1023.5 4.5 NW 5.4 1.5 2.1
12:14 4.9 3.6 91 1023.4 8.3 NW 8.3 0.8 2.1
12:16 4.9 3.6 91 1023.3 5.4 W 9.2 0.8 2.1
12:17 4.8 3.5 91 1023.4 8.3 W 9.2 0.8 2.1
12:18 4.7 3.4 91 1023.5 6.0 W 9.2 0.8 2.2
12:19 4.7 3.4 91 1023.4 5.4 W 9.2 1.5 2.2
12:20 4.6 3.3 91 1023.4 6.0 W 9.2 0.8 2.2
12:21 4.5 3.2 91 1023.3 5.4 NW 9.2 0.8 2.2
12:22 4.5 3.3 92 1023.5 3.8 NW 9.2 0.8 2.2
12:23 4.4 3.2 92 1023.4 4.5 W 9.2 1.5 2.3
12:24 4.4 3.2 92 1023.3 3.8 NW 9.2 0.8 2.3
12:25 4.4 3.2 92 1023.4 5.4 NW 8.3 0.8 2.3
12:26 4.4 3.2 92 1023.3 4.5 SW 8.3 1.5 2.3
12:27 4.5 3.5 93 1023.1 5.4 NW 7.6 1.5 2.3
12:28 4.5 3.5 93 1023.2 6.0 NW 6.0 0.8 2.3
12:29 4.5 3.5 93 1023.2 3.1 NW 6.0 0.8 2.4
12:30 4.5 3.5 93 1023.3 3.1 NW 6.0 1.5 2.4
12:31 4.6 3.6 93 1023.2 3.8 NW 6.0 0.8 2.4
12:32 4.7 3.7 93 1023.2 3.1 NW 6.0 0.8 2.5
12:33 4.7 3.7 93 1023.2 4.5 NW 6.0 1.5 2.5
12:34 4.8 3.8 93 1023.3 3.1 NW 6.0 1.5 2.5
12:36 4.9 3.9 93 1023.2 4.5 NW 6.0 1.5 2.5
12:37 5.0 4.0 93 1023.2 3.1 NW 6.0 1.5 2.5
12:38 5.0 4.0 93 1023.2 1.6 NW 6.0 0.8 2.6
12:39 5.1 4.1 93 1023.0 6.0 W 6.0 1.5 2.6
12:40 5.1 4.1 93 1023.2 4.5 NW 6.0 1.5 2.6
12:41 5.2 4.2 93 1023.1 3.1 NW 6.0 0.8 2.6
12:42 5.2 4.2 93 1023.0 3.8 NW 6.0 1.5 2.6
12:43 5.2 4.2 93 1023.0 4.5 NW 6.0 2.3 2.7
12:44 5.2 4.0 92 1023.0 3.8 NW 6.0 1.5 2.7
12:45 5.2 4.0 92 1023.0 3.8 NW 6.0 1.5 2.7
12:46 5.2 4.0 92 1023.0 3.1 NW 6.0 1.5 2.8
12:47 5.3 4.1 92 1022.9 4.5 NW 6.0 1.5 2.8
12:48 5.3 4.1 92 1023.1 5.4 NW 6.0 0.8 2.8
12:49 5.3 4.1 92 1023.0 2.2 NW 5.4 1.5 2.8
12:50 5.3 4.1 92 1023.0 1.6 NW 5.4 1.5 2.8
12:51 5.3 4.1 92 1023.0 3.1 NW 5.4 1.5 2.8
12:52 5.3 4.1 92 1022.9 2.2 NW 5.4 0.8 2.9
12:53 5.3 4.1 92 1023.1 3.1 NW 5.4 1.5 2.9
12:54 5.3 4.1 92 1022.9 3.8 NW 5.4 0.8 2.9
12:55 5.3 4.1 92 1022.9 3.1 NW 5.4 0.8 2.9
12:56 5.2 4.0 92 1022.9 1.6 NW 5.4 1.5 3.0
12:57 5.2 4.0 92 1023.0 3.1 NW 5.4 1.5 3.0
12:58 5.2 4.0 92 1023.1 3.8 NW 5.4 0.8 3.0
13:00 5.2 4.0 92 1023.0 2.2 NW 3.8 0.8 3.0
13:01 5.2 4.0 92 1022.9 2.2 NW 3.8 0.0 3.0
13:02 5.2 4.0 92 1022.9 2.2 NW 3.8 0.0 3.0
13:03 5.2 4.0 92 1023.0 2.2 NW 3.8 0.0 3.0
13:04 5.2 4.0 92 1023.0 2.2 NW 3.8 0.0 3.0
13:05 5.2 4.0 92 1023.0 2.2 NW 3.8 0.0 3.0
13:06 5.0 3.7 91 1023.0 3.8 N 3.8 2.3 3.1
13:07 5.0 3.7 91 1023.0 3.8 N 3.8 2.3 3.1
13:08 5.0 3.7 91 1023.0 3.1 N 3.8 2.3 3.1
13:09 4.9 3.6 91 1023.1 1.6 N 3.8 2.3 3.1
13:10 4.9 3.4 90 1022.9 2.2 NW 3.8 2.3 3.1
13:11 4.9 3.4 90 1022.9 2.2 NW 3.8 0.0 3.1
13:12 4.9 3.4 90 1023.1 3.1 NW 3.8 0.8 3.2
13:13 4.8 3.3 90 1023.1 3.1 NW 3.8 0.8 3.2
13:14 4.8 3.3 90 1023.2 2.2 NW 3.8 0.8 3.2
13:15 4.7 3.2 90 1023.1 1.6 NW 3.8 0.8 3.2
13:16 4.7 3.2 90 1023.1 0.7 NW 3.8 0.8 3.2
13:17 4.7 3.2 90 1023.0 3.1 NW 3.8 0.0 3.3
13:18 4.7 3.2 90 1023.1 2.2 NW 3.8 0.8 3.3
13:19 4.7 3.2 90 1022.9 2.2 NW 3.8 0.8 3.3
13:21 4.6 3.1 90 1022.9 1.6 NW 3.1 0.8 3.3
13:22 4.6 3.1 90 1022.9 2.2 NW 3.8 0.8 3.3
13:23 4.6 3.1 90 1023.0 1.6 NW 3.8 0.0 3.3
13:24 4.6 3.1 90 1022.9 2.2 NW 3.8 0.0 3.3
13:25 4.6 3.1 90 1022.9 1.6 NW 3.8 0.8 3.3
13:26 4.6 3.1 90 1022.9 3.1 NW 3.8 0.8 3.3
13:27 4.6 3.1 90 1023.0 1.6 NW 3.8 0.8 3.3
13:29 4.6 3.1 90 1022.9 1.6 NW 3.8 0.8 3.3
13:30 4.7 3.2 90 1022.9 2.2 NW 3.8 0.0 3.4
13:31 4.6 3.1 90 1022.9 5.4 N 5.4 0.8 3.4
13:32 4.7 3.2 90 1023.0 2.2 N 5.4 0.8 3.4
13:33 4.6 3.1 90 1022.9 2.2 N 5.4 0.8 3.4
13:34 4.6 3.1 90 1022.8 2.2 N 5.4 0.8 3.4
13:35 4.7 3.2 90 1022.9 3.1 N 5.4 0.8 3.4
13:36 4.6 3.1 90 1022.7 2.2 N 5.4 0.0 3.5
13:37 4.7 3.2 90 1022.9 3.1 N 5.4 0.8 3.5
13:38 4.7 3.2 90 1022.8 4.5 N 5.4 0.8 3.5
13:39 4.7 3.2 90 1022.8 4.5 N 5.4 0.8 3.5
13:41 4.7 3.2 90 1022.8 3.8 NW 5.4 0.8 3.5
13:42 4.7 3.2 90 1022.8 2.2 NW 4.5 0.8 3.5
13:43 4.7 3.2 90 1022.9 2.2 NW 4.5 0.8 3.5
13:44 4.7 3.2 90 1022.7 4.5 NW 4.5 0.8 3.5
13:45 4.7 3.2 90 1022.8 4.5 NW 4.5 0.8 3.5
13:46 4.7 3.2 90 1022.8 3.8 NW 4.5 0.8 3.5
13:47 4.7 3.2 90 1022.8 3.1 NW 4.5 0.0 3.5
13:48 4.7 3.2 90 1023.1 3.1 NW 4.5 0.8 3.6
13:49 4.7 3.2 90 1022.8 2.2 NW 4.5 0.8 3.6
13:50 4.7 3.2 90 1022.8 2.2 NW 4.5 0.8 3.6
13:51 4.7 3.2 90 1022.8 2.2 NW 4.5 0.8 3.6
13:52 4.7 3.2 90 1022.8 3.1 NW 4.5 0.8 3.6
13:53 4.7 3.0 89 1022.9 2.2 NW 4.5 0.0 3.7
13:54 4.7 3.0 89 1022.7 0.7 NW 4.5 0.8 3.7
13:55 4.7 3.2 90 1022.8 0.7 NW 4.5 0.8 3.7
13:56 4.7 3.2 90 1022.9 1.6 NW 3.8 0.8 3.7
13:57 4.7 3.2 90 1022.8 3.1 NW 3.8 0.8 3.7
13:58 4.7 3.2 90 1022.8 3.1 NW 3.8 0.8 3.7
13:59 4.7 3.2 90 1022.8 3.1 NW 3.8 0.0 3.7
14:00 4.7 3.2 90 1022.8 3.1 NW 3.1 0.0 3.7
14:02 4.7 3.2 90 1022.8 3.1 NW 3.1 0.0 3.7
14:03 4.7 3.2 90 1022.8 3.1 NW 3.1 0.0 3.7
14:04 4.7 3.2 90 1022.7 3.1 NW 3.1 0.0 3.7
14:05 4.7 3.2 90 1022.8 3.1 NW 3.1 0.0 3.7
14:06 4.7 3.0 89 1022.8 3.8 NW 3.8 1.5 3.8
14:07 4.7 3.0 89 1022.7 3.1 NW 3.8 2.3 3.8
14:08 4.7 3.0 89 1022.7 3.1 NW 3.8 2.3 3.8
14:09 4.7 3.0 89 1022.7 3.8 NW 3.8 2.3 3.8
14:11 4.7 3.0 89 1022.7 0.7 NW 3.8 0.8 3.8
14:12 4.7 3.0 89 1022.7 1.6 NW 3.8 0.0 3.8
14:14 4.6 2.9 89 1022.7 2.2 NW 3.8 0.8 3.9
14:15 4.6 2.9 89 1022.8 2.2 NW 3.8 0.8 3.9
14:17 4.6 2.9 89 1022.7 2.2 NW 3.8 0.8 3.9
14:18 4.6 2.9 89 1022.7 3.8 NW 4.5 0.8 3.9
14:19 4.6 2.9 89 1022.7 3.8 NW 4.5 0.0 3.9
14:20 4.6 2.9 89 1022.7 3.8 NW 4.5 0.8 4.0
14:21 4.5 2.8 89 1022.7 2.2 N 4.5 0.8 4.0
14:22 4.6 2.9 89 1022.7 2.2 N 4.5 0.8 4.0
14:23 4.5 2.8 89 1022.6 1.6 N 4.5 0.8 4.0
14:24 4.5 2.8 89 1022.6 2.2 N 4.5 0.8 4.0
14:25 4.6 2.9 89 1022.6 2.2 N 4.5 0.0 4.0
14:26 4.5 2.8 89 1022.8 3.1 N 4.5 0.0 4.0
14:27 4.5 2.8 89 1022.6 2.2 N 4.5 0.0 4.0
14:28 4.5 2.8 89 1022.5 2.2 N 4.5 0.8 4.0
14:30 4.5 2.8 89 1022.6 2.2 N 4.5 0.8 4.0
14:31 4.5 2.8 89 1022.5 3.1 N 3.8 0.8 4.0
14:32 4.5 2.8 89 1022.6 2.2 N 3.8 0.8 4.0
14:33 4.5 2.8 89 1022.7 1.6 N 3.8 0.0 4.0
14:34 4.5 2.8 89 1022.6 2.2 N 3.8 0.0 4.2
14:35 4.5 2.8 89 1022.7 2.2 N 3.8 1.5 4.2
14:36 4.4 2.7 89 1022.5 1.6 N 3.8 1.5 4.2
14:37 4.4 2.7 89 1022.5 2.2 N 3.8 1.5 4.2
14:38 4.4 2.7 89 1022.6 2.2 N 3.8 1.5 4.2
14:39 4.4 2.7 89 1022.4 2.2 N 3.8 1.5 4.2
14:40 4.4 2.7 89 1022.6 0.7 N 3.1 0.0 4.2
14:41 4.4 2.7 89 1022.6 0.7 N 2.2 0.0 4.2
14:42 4.4 2.7 89 1022.7 3.1 N 3.1 0.0 4.2
14:43 4.4 2.7 89 1022.6 2.2 N 3.1 0.0 4.2
14:44 4.3 2.7 89 1022.5 1.6 N 3.1 0.0 4.2
14:45 4.3 2.7 89 1022.5 1.6 N 3.1 0.8 4.2
14:47 4.3 2.7 89 1022.6 1.6 N 3.1 0.8 4.2
14:48 4.3 2.7 89 1022.6 1.6 N 3.1 0.8 4.2
14:49 4.3 2.7 89 1022.6 3.1 N 3.1 0.8 4.2
14:50 4.3 2.7 89 1022.6 1.6 N 3.1 0.0 4.2
14:51 4.3 2.7 89 1022.6 1.6 N 3.1 0.0 4.2
14:52 4.3 2.7 89 1022.5 2.2 N 3.1 0.0 4.3
14:53 4.3 2.7 89 1022.6 2.2 N 3.1 0.8 4.3
14:54 4.2 2.6 89 1022.6 2.2 N 3.1 0.8 4.3
14:55 4.2 2.6 89 1022.4 3.1 N 3.1 0.8 4.3
14:57 4.2 2.6 89 1022.4 1.6 N 3.1 0.8 4.3
14:58 4.2 2.6 89 1022.5 0.7 N 3.1 0.0 4.3
14:59 4.2 2.6 89 1022.5 1.6 N 3.1 0.0 4.3
15:00 4.2 2.6 89 1022.5 1.6 N 3.1 0.0 4.3
15:02 4.2 2.6 89 1022.6 1.6 N 3.1 0.0 4.3
15:03 4.2 2.6 89 1022.5 1.6 N 3.1 0.0 4.3
15:04 4.2 2.6 89 1022.6 1.6 N 3.1 0.0 4.3
15:06 4.1 2.5 89 1022.5 1.6 N 3.1 1.5 4.4
15:07 4.1 2.5 89 1022.5 1.6 N 1.6 1.5 4.4
15:08 4.1 2.5 89 1022.6 2.2 N 2.2 1.5 4.4
15:09 4.1 2.5 89 1022.5 0.7 N 2.2 1.5 4.4
15:10 4.1 2.5 89 1022.6 1.6 N 2.2 1.5 4.4
15:12 4.0 2.4 89 1022.6 0.7 N 2.2 0.0 4.4
15:13 4.0 2.4 89 1022.5 0.7 N 2.2 0.0 4.4
15:14 4.0 2.4 89 1022.5 2.2 N 2.2 0.0 4.4
15:15 4.0 2.4 89 1022.6 0.7 N 2.2 0.8 4.5
15:16 4.0 2.4 89 1022.6 0.7 N 2.2 0.8 4.5
15:17 4.0 2.4 89 1022.5 0.0 N 2.2 0.8 4.5
15:18 4.0 2.4 89 1022.6 0.7 N 2.2 0.8 4.5
15:19 4.0 2.4 89 1022.7 0.7 N 2.2 0.8 4.5
15:20 3.9 2.4 90 1022.6 0.7 N 2.2 0.0 4.5
15:22 4.0 2.4 89 1022.6 0.7 N 2.2 0.0 4.5
15:23 4.0 2.5 90 1022.5 0.7 N 2.2 0.0 4.5
15:24 4.0 2.5 90 1022.6 0.7 N 1.6 0.0 4.5
15:25 4.0 2.5 90 1022.5 0.7 N 1.6 0.0 4.5
15:26 4.0 2.5 90 1022.5 0.7 N 1.6 0.0 4.5
15:28 4.0 2.5 90 1022.6 0.7 N 1.6 0.0 4.5
15:29 4.0 2.5 90 1022.3 0.7 N 1.6 0.0 4.5
15:30 3.9 2.4 90 1022.5 0.7 N 1.6 0.8 4.5
15:31 3.9 2.4 90 1022.5 0.7 N 1.6 0.8 4.5
15:32 3.9 2.4 90 1022.3 1.6 N 1.6 0.8 4.5
15:33 3.9 2.4 90 1022.4 1.6 N 1.6 0.8 4.5
15:35 3.9 2.4 90 1022.4 1.6 N 1.6 0.0 4.5
15:36 3.9 2.4 90 1022.5 0.7 N 1.6 0.0 4.5
15:38 3.9 2.4 90 1022.5 0.7 N 1.6 0.0 4.5
15:40 3.9 2.4 90 1022.5 0.0 N 1.6 0.0 4.5
15:41 3.9 2.4 90 1022.4 0.7 N 1.6 0.0 4.5
15:42 3.9 2.4 90 1022.6 0.7 N 1.6 0.0 4.6
15:43 3.9 2.4 90 1022.5 1.6 N 1.6 0.8 4.6
15:45 3.9 2.4 90 1022.5 0.7 N 1.6 0.8 4.6
15:46 3.9 2.4 90 1022.4 0.7 N 1.6 0.8 4.6
15:47 3.8 2.3 90 1022.5 0.7 N 1.6 0.8 4.6
15:48 3.8 2.3 90 1022.5 1.6 N 1.6 0.0 4.6
15:49 3.9 2.4 90 1022.5 0.0 N 1.6 0.0 4.6
15:50 3.9 2.4 90 1022.6 1.6 N 1.6 0.0 4.6
15:52 3.8 2.3 90 1022.3 0.7 N 1.6 0.0 4.6
15:53 3.8 2.3 90 1022.3 0.7 N 1.6 0.0 4.6
15:54 3.8 2.5 91 1022.4 1.6 N 1.6 0.0 4.6
15:55 3.8 2.3 90 1022.5 1.6 N 1.6 0.0 4.6
15:56 3.8 2.3 90 1022.3 1.6 N 1.6 0.0 4.6
15:57 3.8 2.5 91 1022.3 2.2 N 2.2 0.0 4.6
15:59 3.8 2.5 91 1022.5 0.7 N 2.2 0.0 4.6
16:00 3.8 2.5 91 1022.3 0.7 N 2.2 0.0 4.6
16:01 3.8 2.5 91 1022.3 2.2 N 2.2 0.0 4.7
16:02 3.8 2.5 91 1022.4 1.6 N 2.2 1.5 4.7
16:03 3.8 2.5 91 1022.4 1.6 N 2.2 1.5 4.7
16:04 3.8 2.5 91 1022.3 2.2 N 4.5 1.5 4.7
16:06 3.8 2.5 91 1022.4 1.6 N 4.5 1.5 4.7
16:07 3.8 2.5 91 1022.4 3.1 N 4.5 0.0 4.7
16:08 3.8 2.5 91 1022.5 2.2 N 4.5 0.0 4.7
16:09 3.8 2.5 91 1022.4 3.1 N 4.5 0.0 4.7
16:11 3.8 2.5 91 1022.2 1.6 N 4.5 0.0 4.7
16:12 3.8 2.5 91 1022.4 2.2 N 4.5 0.0 4.7
16:14 3.8 2.5 91 1022.4 2.2 N 4.5 0.0 4.8
16:15 3.8 2.5 91 1022.3 0.7 N 3.1 0.8 4.8
16:16 3.8 2.5 91 1022.4 3.1 N 3.1 0.8 4.8
16:18 3.7 2.4 91 1022.4 2.2 N 3.1 0.8 4.8
16:19 3.8 2.5 91 1022.4 2.2 N 3.1 0.8 4.8
16:20 3.7 2.4 91 1022.4 1.6 N 3.1 0.0 4.8
16:21 3.7 2.4 91 1022.6 1.6 N 3.1 0.0 4.8
16:22 3.7 2.4 91 1022.4 0.7 N 3.1 0.0 4.8
16:23 3.7 2.4 91 1022.4 0.7 N 3.1 0.0 4.8
16:25 3.7 2.4 91 1022.2 0.7 N 3.1 0.0 4.8
16:26 3.7 2.4 91 1022.3 0.0 N 3.1 0.0 4.8
16:27 3.7 2.4 91 1022.4 1.6 N 2.2 0.0 4.8
16:28 3.7 2.4 91 1022.4 0.7 N 2.2 0.0 4.8
16:29 3.7 2.4 91 1022.5 0.7 N 2.2 0.0 4.8
16:30 3.7 2.4 91 1022.5 1.6 N 1.6 0.0 4.8
16:31 3.7 2.4 91 1022.5 0.7 N 1.6 0.0 4.8
16:32 3.7 2.4 91 1022.4 1.6 N 1.6 0.0 4.8
16:33 3.7 2.4 91 1022.5 1.6 N 2.2 0.0 4.9
16:34 3.7 2.4 91 1022.6 1.6 N 2.2 0.8 4.9
16:36 3.6 2.3 91 1022.6 2.2 N 2.2 0.8 4.9
16:37 3.6 2.3 91 1022.4 2.2 N 2.2 0.8 4.9
16:38 3.6 2.3 91 1022.6 3.1 N 3.1 0.8 4.9
16:40 3.6 2.3 91 1022.6 1.6 N 3.1 0.0 4.9
16:41 3.6 2.3 91 1022.4 1.6 N 3.1 0.0 4.9
16:42 3.6 2.3 91 1022.4 1.6 N 3.1 0.0 4.9
16:44 3.5 2.2 91 1022.4 0.7 N 3.1 0.0 4.9
16:45 3.5 2.2 91 1022.4 1.6 N 3.1 0.0 4.9
16:46 3.5 2.2 91 1022.3 0.7 N 3.1 0.0 4.9
16:47 3.5 2.2 91 1022.5 0.7 N 3.1 0.0 4.9
16:49 3.5 2.2 91 1022.3 0.0 N 2.2 0.0 4.9
16:50 3.5 2.2 91 1022.5 0.7 N 2.2 0.0 4.9
16:52 3.5 2.2 91 1022.4 1.6 N 1.6 0.0 4.9
16:53 3.4 2.1 91 1022.4 0.7 N 1.6 0.0 4.9
16:54 3.4 2.1 91 1022.4 0.7 N 1.6 0.0 4.9
16:55 3.4 2.1 91 1022.4 1.6 N 1.6 0.8 4.9
16:57 3.4 2.1 91 1022.5 2.2 N 2.2 0.8 4.9
16:58 3.4 2.1 91 1022.3 1.6 N 2.2 0.8 4.9
17:00 3.4 2.1 91 1022.6 0.7 N 2.2 0.0 4.9
17:01 3.4 2.1 91 1022.3 0.7 N 2.2 0.0 4.9
17:02 3.4 2.1 91 1022.4 0.7 N 2.2 0.0 4.9
17:03 3.4 2.1 91 1022.3 0.7 N 2.2 0.0 4.9
17:04 3.4 2.1 91 1022.3 0.7 N 2.2 0.0 4.9
17:06 3.4 2.1 91 1022.3 0.7 N 2.2 0.0 4.9
17:07 3.2 1.9 91 1022.3 0.7 N 2.2 0.0 4.9
17:08 3.2 1.9 91 1022.4 1.6 N 1.6 0.0 4.9
17:09 3.2 1.9 91 1022.3 1.6 N 1.6 0.0 4.9
17:10 3.2 1.9 91 1022.5 1.6 N 1.6 0.0 4.9
17:11 3.2 1.9 91 1022.5 0.7 N 1.6 0.0 4.9
17:12 3.2 1.9 91 1022.4 0.7 N 1.6 0.0 4.9
17:14 3.1 1.8 91 1022.3 0.7 N 1.6 0.0 4.9
17:15 3.1 1.8 91 1022.5 0.7 N 1.6 0.0 4.9
17:16 3.1 1.8 91 1022.4 0.7 N 1.6 0.0 4.9
17:17 3.1 1.8 91 1022.4 0.0 N 1.6 0.0 4.9
17:18 3.1 1.8 91 1022.5 0.0 N 1.6 0.0 4.9
17:19 3.0 1.7 91 1022.5 0.7 N 1.6 0.0 4.9
17:20 3.1 1.8 91 1022.4 1.6 N 1.6 0.0 4.9
17:21 3.0 1.7 91 1022.5 0.0 N 1.6 0.0 4.9
17:22 3.0 1.7 91 1022.4 0.0 N 1.6 0.0 4.9
17:23 3.0 1.7 91 1022.4 2.2 N 2.2 0.0 4.9
17:24 3.0 1.7 91 1022.6 0.7 N 2.2 0.0 4.9
17:25 3.0 1.7 91 1022.5 1.6 N 2.2 0.0 4.9
17:26 3.0 1.7 91 1022.4 0.7 N 2.2 0.0 4.9
17:27 3.0 1.8 92 1022.4 0.0 N 2.2 0.0 4.9
17:28 2.9 1.7 92 1022.5 0.7 N 2.2 0.0 4.9
17:30 2.9 1.6 91 1022.5 0.7 N 2.2 0.0 4.9
17:31 2.9 1.7 92 1022.4 0.7 N 2.2 0.0 4.9
17:32 2.9 1.6 91 1022.3 0.7 N 2.2 0.0 4.9
17:33 2.9 1.7 92 1022.5 0.7 N 2.2 0.0 4.9
17:34 2.9 1.7 92 1022.4 0.7 N 2.2 0.0 4.9
17:35 2.8 1.6 92 1022.5 0.7 N 2.2 0.0 4.9
17:36 2.8 1.6 92 1022.6 0.7 N 2.2 0.0 4.9
17:37 2.8 1.6 92 1022.4 1.6 N 2.2 0.0 4.9
17:38 2.8 1.6 92 1022.5 1.6 N 2.2 0.0 4.9
17:39 2.8 1.6 92 1022.5 0.7 N 2.2 0.0 4.9
17:41 2.8 1.6 92 1022.4 0.7 N 1.6 0.0 4.9
17:42 2.8 1.6 92 1022.5 0.7 N 1.6 0.0 4.9
17:43 2.7 1.5 92 1022.6 0.7 N 1.6 0.0 4.9
17:45 2.7 1.5 92 1022.5 1.6 N 1.6 0.0 4.9
17:46 2.7 1.5 92 1022.5 0.7 N 1.6 0.0 4.9
17:47 2.7 1.5 92 1022.6 1.6 N 1.6 0.0 4.9
17:48 2.7 1.5 92 1022.7 0.7 N 1.6 0.0 4.9
17:49 2.7 1.5 92 1022.6 0.0 N 1.6 0.0 4.9
17:50 2.7 1.5 92 1022.7 0.7 N 1.6 0.0 5.0
17:51 2.7 1.5 92 1022.5 1.6 N 1.6 0.8 5.0
17:53 2.7 1.5 92 1022.5 0.7 N 1.6 0.8 5.0
17:54 2.7 1.5 92 1022.6 0.0 N 1.6 0.8 5.0
17:55 2.7 1.5 92 1022.6 0.7 N 1.6 0.8 5.0
17:56 2.6 1.4 92 1022.5 0.0 N 1.6 0.0 5.0
17:57 2.6 1.4 92 1022.5 0.7 N 1.6 0.0 5.0
17:58 2.6 1.4 92 1022.4 0.7 N 1.6 0.0 5.0
17:59 2.6 1.4 92 1022.4 0.7 N 1.6 0.0 5.0
18:01 2.6 1.4 92 1022.4 0.7 N 1.6 0.0 5.0
18:02 2.6 1.4 92 1022.6 0.7 N 0.7 0.0 5.0
18:03 2.6 1.4 92 1022.6 0.7 N 0.7 0.0 5.0
18:04 2.6 1.4 92 1022.5 0.7 N 0.7 0.0 5.0
18:05 2.6 1.4 92 1022.6 0.7 N 0.7 0.0 5.0
18:06 2.6 1.4 92 1022.6 0.7 N 0.7 0.0 5.0
18:07 2.6 1.4 92 1022.6 0.0 N 0.7 0.0 5.0
18:09 2.6 1.4 92 1022.6 0.0 N 0.7 0.0 5.0
18:10 2.5 1.5 93 1022.5 0.0 N 0.7 0.0 5.0
18:11 2.6 1.4 92 1022.5 0.0 N 0.7 0.0 5.0
18:13 2.5 1.5 93 1022.6 0.0 N 0.7 0.0 5.0
18:14 2.5 1.5 93 1022.5 0.0 N 0.7 0.0 5.0
18:16 2.5 1.5 93 1022.6 0.0 N 0.7 0.0 5.0
18:18 2.5 1.5 93 1022.5 0.0 N 0.7 0.0 5.0
18:19 2.4 1.4 93 1022.7 0.0 N 0.7 0.0 5.0
18:21 2.4 1.4 93 1022.6 0.0 N 0.7 0.0 5.0
18:22 2.4 1.4 93 1022.7 0.0 N 0.7 0.0 5.0
18:23 2.4 1.4 93 1022.6 0.0 N 0.7 0.0 5.0
18:25 2.4 1.4 93 1022.6 0.0 N 0.7 0.0 5.0
18:26 2.4 1.4 93 1022.5 0.0 N 0.7 0.0 5.0
18:27 2.4 1.4 93 1022.7 0.0 N 0.7 0.0 5.0
18:28 2.4 1.4 93 1022.7 0.0 N 0.0 0.0 5.0
18:30 2.3 1.3 93 1022.8 0.7 N 0.7 0.0 5.0
18:31 2.3 1.3 93 1022.8 0.0 N 0.7 0.0 5.0
18:32 2.3 1.3 93 1022.7 0.7 N 0.7 0.0 5.0
18:34 2.2 1.2 93 1022.7 0.7 N 0.7 0.0 5.0
18:35 2.2 1.2 93 1022.7 1.6 N 1.6 0.0 5.0
18:37 2.2 1.2 93 1022.7 0.7 N 1.6 0.0 5.0
18:38 2.2 1.2 93 1022.6 0.7 N 1.6 0.0 5.0
18:39 2.2 1.2 93 1022.7 0.7 N 1.6 0.0 5.0
18:40 2.2 1.2 93 1022.6 1.6 N 1.6 0.0 5.0
18:41 2.2 1.2 93 1022.7 0.0 N 1.6 0.0 5.0
18:42 2.2 1.2 93 1022.7 0.0 N 1.6 0.0 5.0
18:43 2.1 1.1 93 1022.7 0.0 N 1.6 0.0 5.0
18:45 2.1 1.1 93 1022.7 0.7 N 1.6 0.0 5.0
18:46 2.1 1.1 93 1022.8 0.0 N 1.6 0.0 5.0
18:47 2.1 1.1 93 1022.8 0.0 N 1.6 0.0 5.0
18:48 2.1 1.1 93 1022.8 0.0 N 1.6 0.0 5.0
18:49 2.1 1.1 93 1022.6 0.0 N 1.6 0.0 5.0
18:51 2.1 1.2 94 1022.8 0.0 N 0.7 0.0 5.0
18:52 2.0 1.1 94 1022.8 0.0 N 0.7 0.0 5.0
18:53 2.0 1.0 93 1022.7 0.0 N 0.7 0.0 5.0
18:54 2.0 1.1 94 1022.7 0.7 N 0.7 0.0 5.0
18:55 2.0 1.1 94 1022.8 0.7 N 0.7 0.0 5.0
18:56 2.0 1.1 94 1022.8 0.0 N 0.7 0.0 5.0
18:57 2.0 1.1 94 1022.7 0.0 N 0.7 0.0 5.0
18:58 2.0 1.1 94 1022.6 0.0 N 0.7 0.0 5.0
18:59 2.0 1.1 94 1022.6 0.0 N 0.7 0.0 5.0
19:00 2.0 1.1 94 1022.7 0.0 N 0.7 0.0 5.0
19:02 2.0 1.1 94 1022.7 0.0 N 0.7 0.0 5.0
19:03 2.0 1.1 94 1022.7 0.0 N 0.7 0.0 5.0
19:04 2.0 1.1 94 1022.7 0.0 N 0.7 0.0 5.0
19:05 2.0 1.1 94 1022.6 0.0 N 0.7 0.0 5.0
19:07 2.0 1.1 94 1022.7 0.0 N 0.0 0.0 5.0
19:08 1.9 1.0 94 1022.8 0.0 N 0.0 0.0 5.0
19:09 1.9 1.0 94 1022.7 0.7 N 0.7 0.0 5.0
19:10 2.0 1.1 94 1022.8 0.0 N 0.7 0.0 5.0
19:11 1.9 1.0 94 1022.8 0.0 N 0.7 0.0 5.0
19:12 1.9 1.0 94 1022.8 0.0 N 0.7 0.0 5.0
19:13 1.9 1.0 94 1022.9 0.0 N 0.7 0.0 5.0
19:15 1.9 1.0 94 1022.8 0.7 N 0.7 0.8 5.0
19:16 1.9 1.0 94 1022.9 0.7 N 0.7 0.8 5.0
19:17 1.9 1.0 94 1022.7 1.6 N 1.6 0.8 5.0
19:18 1.9 1.0 94 1022.8 0.7 N 1.6 0.8 5.0
19:19 1.9 1.0 94 1022.7 0.7 N 1.6 0.8 5.0
19:21 1.9 1.2 95 1022.7 0.7 N 1.6 0.0 5.0
19:22 1.9 1.2 95 1022.8 0.0 N 1.6 0.0 5.0
19:23 1.9 1.2 95 1022.7 0.7 N 1.6 0.0 5.0
19:24 1.9 1.2 95 1022.6 0.0 N 1.6 0.0 5.0
19:25 1.9 1.2 95 1022.6 0.7 N 1.6 0.0 5.0
19:27 1.9 1.2 95 1022.7 0.7 N 0.7 0.0 5.0
19:28 2.0 1.3 95 1022.7 0.0 N 0.7 0.0 5.0
19:29 1.9 1.2 95 1022.6 0.0 N 0.7 0.0 5.0
19:30 2.0 1.3 95 1022.7 0.7 N 0.7 0.0 5.0
19:32 1.9 1.2 95 1022.6 0.0 N 0.7 0.0 5.0
19:33 2.0 1.3 95 1022.8 0.7 N 0.7 0.0 5.0
19:34 2.0 1.3 95 1022.7 0.0 N 0.7 0.0 5.0
19:35 2.0 1.3 95 1022.6 0.0 N 0.7 0.0 5.0
19:36 2.0 1.3 95 1022.8 0.0 N 0.7 0.0 5.0
19:37 2.0 1.3 95 1022.7 0.0 N 0.7 0.0 5.0
19:38 2.0 1.3 95 1022.7 0.0 N 0.7 0.0 5.0
19:40 2.0 1.3 95 1022.8 0.7 N 0.7 0.0 5.0
19:41 2.0 1.3 95 1022.7 0.0 N 0.7 0.0 5.0
19:42 1.9 1.2 95 1022.7 0.0 N 0.7 0.0 5.0
19:43 1.9 1.2 95 1022.6 0.0 N 0.7 0.0 5.0
19:44 1.9 1.2 95 1022.7 0.0 N 0.7 0.0 5.0
19:45 1.9 1.2 95 1022.7 0.0 N 0.7 0.0 5.0
19:46 1.9 1.2 95 1022.7 0.7 N 0.7 0.0 5.0
19:47 1.9 1.2 95 1022.6 0.7 N 0.7 0.0 5.0
19:49 1.9 1.2 95 1022.6 0.7 N 0.7 0.0 5.0
19:50 1.9 1.2 95 1022.6 0.7 N 0.7 0.0 5.0
19:51 1.9 1.2 95 1022.6 0.7 N 0.7 0.0 5.0
19:52 1.9 1.2 95 1022.6 0.7 N 0.7 0.0 5.0
19:53 1.9 1.2 95 1022.7 1.6 N 1.6 0.0 5.0
19:54 1.9 1.3 96 1022.8 1.6 N 1.6 0.0 5.0
19:55 1.9 1.3 96 1022.6 0.7 N 1.6 0.0 5.0
19:56 1.9 1.3 96 1022.6 0.7 N 1.6 0.0 5.0
19:57 1.9 1.3 96 1022.7 0.0 N 1.6 0.0 5.0
19:59 2.0 1.4 96 1022.6 0.0 N 1.6 0.0 5.0
20:00 2.0 1.4 96 1022.6 0.0 N 1.6 0.0 5.0
20:01 2.0 1.4 96 1022.7 0.0 N 1.6 0.0 5.0
20:02 2.0 1.4 96 1022.5 0.0 N 1.6 0.0 5.0
20:03 2.0 1.4 96 1022.6 0.0 N 1.6 0.0 5.0
20:05 2.0 1.4 96 1022.6 0.0 N 1.6 0.0 5.0
20:06 2.0 1.4 96 1022.7 0.0 N 0.7 0.0 5.0
20:07 2.0 1.4 96 1022.7 0.7 N 0.7 0.0 5.0
20:09 1.9 1.3 96 1022.6 0.7 N 0.7 0.0 5.0
20:10 1.9 1.3 96 1022.6 0.7 N 0.7 0.0 5.0
20:11 1.9 1.3 96 1022.6 0.7 N 0.7 0.0 5.0
20:13 1.9 1.3 96 1022.5 0.7 N 0.7 0.0 5.0
20:14 1.9 1.3 96 1022.6 0.0 N 0.7 0.0 5.0
20:16 1.9 1.3 96 1022.5 0.0 N 0.7 0.0 5.0
20:18 1.9 1.3 96 1022.4 0.0 N 0.7 0.0 5.0
20:19 1.9 1.3 96 1022.4 0.0 N 0.7 0.0 5.0
20:21 1.9 1.3 96 1022.5 0.0 N 0.7 0.0 5.0
20:23 1.9 1.3 96 1022.5 0.7 N 0.7 0.0 5.0
20:25 1.9 1.3 96 1022.5 0.0 N 0.7 0.0 5.0
20:26 1.8 1.2 96 1022.5 0.0 N 0.7 0.0 5.0
20:28 1.8 1.2 96 1022.5 1.6 N 1.6 0.0 5.0
20:30 1.8 1.2 96 1022.5 0.0 N 1.6 0.0 5.0
20:31 1.8 1.2 96 1022.5 0.7 N 1.6 0.0 5.0
20:32 1.8 1.2 96 1022.4 0.7 N 1.6 0.0 5.0
20:33 1.8 1.2 96 1022.6 1.6 N 1.6 0.0 5.0
20:34 1.8 1.2 96 1022.3 0.0 N 1.6 0.0 5.0
20:35 1.8 1.2 96 1022.3 0.0 N 1.6 0.0 5.0
20:37 1.8 1.2 96 1022.3 0.7 N 1.6 0.0 5.0
20:38 1.8 1.2 96 1022.6 0.7 N 1.6 0.0 5.0
20:39 1.8 1.2 96 1022.4 0.7 N 1.6 0.0 5.0
20:40 1.8 1.2 96 1022.4 0.7 N 1.6 0.0 5.0
20:41 1.8 1.2 96 1022.2 0.7 N 1.6 0.0 5.0
20:42 1.8 1.2 96 1022.3 0.7 N 1.6 0.0 5.0
20:44 1.8 1.2 96 1022.4 0.7 N 0.7 0.0 5.0
20:45 1.8 1.2 96 1022.5 0.0 N 0.7 0.0 5.0
20:46 1.8 1.2 96 1022.4 0.0 N 0.7 0.0 5.0
20:47 1.8 1.2 96 1022.5 0.0 N 0.7 0.0 5.0
20:48 1.8 1.2 96 1022.4 0.7 N 0.7 0.0 5.0
20:49 1.9 1.3 96 1022.6 0.0 N 0.7 0.0 5.0
20:50 1.8 1.2 96 1022.5 0.0 N 0.7 0.0 5.0
20:51 1.8 1.2 96 1022.5 0.0 N 0.7 0.0 5.0
20:53 1.9 1.3 96 1022.4 0.0 N 0.7 0.0 5.0
20:54 1.8 1.2 96 1022.4 0.7 N 0.7 0.0 5.0
20:55 1.9 1.3 96 1022.5 0.0 N 0.7 0.0 5.0
20:56 1.9 1.3 96 1022.4 0.7 N 0.7 0.0 5.0
20:57 1.9 1.3 96 1022.4 0.7 N 0.7 0.0 5.0
20:58 1.9 1.3 96 1022.4 0.0 N 0.7 0.0 5.0
20:59 1.9 1.3 96 1022.3 0.0 N 0.7 0.0 5.0
21:00 1.9 1.3 96 1022.5 0.0 N 0.7 0.0 5.0
21:01 1.9 1.3 96 1022.4 0.0 N 0.7 0.0 5.0
21:03 1.9 1.3 96 1022.3 0.0 N 0.7 0.0 5.0
21:04 1.9 1.3 96 1022.4 0.0 N 0.7 0.0 5.0
21:05 1.9 1.3 96 1022.5 0.0 N 0.7 0.0 5.0
21:06 1.9 1.3 96 1022.5 0.0 N 0.7 0.0 5.0
21:07 1.9 1.3 96 1022.4 0.7 N 0.7 0.0 5.0
21:09 1.9 1.3 96 1022.4 0.7 N 0.7 0.0 5.0
21:10 1.9 1.3 96 1022.2 0.0 N 0.7 0.0 5.0
21:11 1.9 1.3 96 1022.3 0.0 N 0.7 0.0 5.0
21:12 1.9 1.3 96 1022.3 0.0 N 0.7 0.0 5.0
21:13 1.9 1.3 96 1022.3 0.0 N 0.7 0.0 5.0
21:14 1.9 1.3 96 1022.4 0.0 N 0.7 0.0 5.0
21:15 1.9 1.3 96 1022.3 0.0 N 0.7 0.0 5.0
21:17 1.9 1.5 97 1022.4 0.0 N 0.7 0.0 5.0
21:18 1.9 1.5 97 1022.2 0.0 N 0.7 0.0 5.0
21:19 1.9 1.3 96 1022.3 0.0 N 0.7 0.0 5.0
21:20 1.9 1.3 96 1022.2 0.0 N 0.7 0.0 5.0
21:21 1.9 1.5 97 1022.4 0.0 N 0.7 0.0 5.0
21:22 1.9 1.5 97 1022.3 0.0 N 0.7 0.0 5.0
21:23 1.9 1.5 97 1022.2 0.0 N 0.7 0.0 5.0
21:24 1.9 1.5 97 1022.4 0.0 N 0.7 0.0 5.0
21:26 1.9 1.5 97 1022.5 0.0 N 0.7 0.0 5.0
21:27 1.9 1.5 97 1022.3 0.0 N 0.7 0.0 5.0
21:28 1.9 1.5 97 1022.3 0.7 N 0.7 0.0 5.1
21:29 1.9 1.5 97 1022.3 0.7 N 0.7 0.8 5.1
21:30 1.9 1.5 97 1022.2 0.0 N 0.7 0.8 5.1
21:32 1.9 1.5 97 1022.2 0.0 N 0.7 0.8 5.1
21:33 1.9 1.5 97 1022.2 0.0 N 0.7 0.0 5.1
21:34 1.9 1.5 97 1022.1 0.7 N 0.7 0.0 5.1
21:36 2.0 1.6 97 1022.2 0.7 N 0.7 0.0 5.1
21:37 1.9 1.5 97 1022.1 0.0 N 0.7 0.0 5.1
21:38 1.9 1.5 97 1022.2 1.6 N 1.6 0.0 5.1
21:39 1.9 1.5 97 1022.0 1.6 N 1.6 0.0 5.1
21:40 1.9 1.5 97 1022.1 1.6 N 1.6 0.0 5.1
21:42 1.9 1.5 97 1022.0 0.7 N 1.6 0.0 5.1
21:43 1.9 1.5 97 1022.1 0.7 N 1.6 0.0 5.1
21:44 1.9 1.5 97 1022.1 0.0 N 1.6 0.0 5.1
21:45 1.9 1.5 97 1022.1 0.7 N 1.6 0.0 5.1
21:47 1.9 1.5 97 1022.2 0.0 N 1.6 0.0 5.1
21:48 1.9 1.5 97 1022.2 0.7 N 1.6 0.0 5.1
21:50 1.9 1.5 97 1022.2 0.7 N 1.6 0.0 5.1
21:51 1.9 1.5 97 1022.2 0.7 N 0.7 0.0 5.1
21:52 2.0 1.6 97 1022.1 0.0 N 0.7 0.0 5.1
21:53 1.9 1.5 97 1022.1 0.7 N 0.7 0.0 5.1
21:55 1.9 1.5 97 1022.0 0.7 N 0.7 0.0 5.1
21:56 1.9 1.5 97 1022.0 0.0 N 0.7 0.0 5.1
21:58 1.9 1.5 97 1022.2 0.7 N 0.7 0.0 5.1
21:59 1.9 1.5 97 1022.1 0.7 N 0.7 0.0 5.1
22:01 1.9 1.5 97 1022.1 0.7 N 0.7 0.0 5.1
22:02 1.9 1.5 97 1022.0 0.7 N 0.7 0.0 5.1
22:04 1.9 1.5 97 1021.9 0.7 N 0.7 0.0 5.1
22:05 1.9 1.5 97 1022.0 0.7 N 0.7 0.0 5.1
22:06 1.9 1.5 97 1021.9 0.7 N 0.7 0.0 5.1
22:08 2.0 1.6 97 1021.9 1.6 N 1.6 0.0 5.1
22:09 2.0 1.6 97 1021.8 0.7 N 1.6 0.0 5.1
22:10 1.9 1.5 97 1021.9 1.6 N 1.6 0.0 5.1
22:11 2.0 1.6 97 1022.0 1.6 N 1.6 0.0 5.1
22:13 2.0 1.6 97 1022.0 1.6 N 1.6 0.0 5.1
22:15 2.0 1.6 97 1022.1 1.6 N 1.6 0.0 5.1
22:17 2.0 1.6 97 1021.8 0.7 N 1.6 0.0 5.1
22:19 2.0 1.6 97 1022.0 1.6 N 1.6 0.0 5.1
22:20 2.0 1.6 97 1022.0 1.6 N 1.6 0.0 5.1
22:22 2.0 1.6 97 1022.0 0.7 N 1.6 0.0 5.1
22:24 2.0 1.6 97 1022.1 0.7 N 1.6 0.0 5.1
22:26 2.0 1.6 97 1022.0 0.7 N 1.6 0.0 5.1
22:28 2.0 1.6 97 1022.0 0.7 N 1.6 0.0 5.1
22:29 2.0 1.6 97 1021.9 1.6 N 1.6 0.0 5.1
22:31 2.0 1.6 97 1021.9 1.6 N 1.6 0.0 5.1
22:33 2.0 1.6 97 1021.9 1.6 N 1.6 0.0 5.1
22:35 2.0 1.4 96 1021.8 0.7 N 1.6 0.8 5.2
22:36 2.0 1.4 96 1022.0 0.7 N 1.6 0.8 5.2
22:38 2.0 1.6 97 1021.8 0.7 N 1.6 0.8 5.2
22:40 2.0 1.4 96 1021.8 0.7 N 1.6 0.0 5.2
22:41 2.0 1.4 96 1021.7 0.7 N 1.6 0.0 5.2
22:43 2.0 1.4 96 1021.7 0.0 N 1.6 0.0 5.2
22:44 2.0 1.4 96 1021.8 0.0 N 0.7 0.0 5.2
22:46 2.0 1.4 96 1021.7 0.0 N 0.7 0.0 5.2
22:47 2.0 1.4 96 1021.7 0.0 N 0.7 0.0 5.2
22:48 2.0 1.4 96 1021.8 0.0 N 0.7 0.0 5.2
22:50 2.0 1.4 96 1021.6 0.0 N 0.7 0.0 5.2
22:51 2.0 1.4 96 1021.6 0.0 N 0.7 0.0 5.2
22:53 2.0 1.4 96 1021.7 0.0 N 0.7 0.0 5.2
22:54 2.0 1.4 96 1021.7 0.0 N 0.7 0.0 5.2
22:55 2.0 1.4 96 1021.7 0.0 N 0.7 0.0 5.2
22:57 2.0 1.4 96 1021.7 0.7 N 0.7 0.0 5.2
22:58 2.0 1.4 96 1021.5 0.7 N 0.7 0.0 5.2
22:59 2.0 1.4 96 1021.6 0.0 N 0.7 0.0 5.2
23:01 2.0 1.4 96 1021.6 0.0 N 0.7 0.0 5.2
23:02 2.0 1.4 96 1021.5 0.0 N 0.7 0.0 5.2
23:03 2.0 1.4 96 1021.7 0.0 N 0.7 0.0 5.2
23:04 2.0 1.4 96 1021.6 0.0 N 0.7 0.0 5.2
23:06 2.0 1.4 96 1021.7 0.0 N 0.7 0.0 5.2
23:07 2.0 1.4 96 1021.7 1.6 N 1.6 0.0 5.2
23:08 2.0 1.4 96 1021.6 2.2 N 2.2 0.0 5.2
23:09 2.0 1.4 96 1021.7 1.6 N 2.2 0.0 5.2
23:10 2.0 1.4 96 1021.6 1.6 N 2.2 0.0 5.2
23:11 2.0 1.4 96 1021.5 1.6 N 2.2 0.0 5.2
23:12 2.0 1.4 96 1021.7 1.6 N 2.2 0.0 5.2
23:14 2.0 1.4 96 1021.5 1.6 N 2.2 0.0 5.2
23:16 2.0 1.4 96 1021.7 1.6 N 2.2 0.0 5.2
23:18 2.0 1.4 96 1021.5 1.6 N 1.6 0.0 5.2
23:22 2.0 1.4 96 1021.6 1.6 N 1.6 0.0 5.2
23:25 2.0 1.4 96 1021.6 0.7 N 1.6 0.0 5.2
23:29 2.0 1.4 96 1021.6 1.6 N 1.6 0.0 5.2
23:32 2.1 1.5 96 1021.5 0.0 N 1.6 0.0 5.2
23:34 2.0 1.4 96 1021.4 0.0 N 1.6 0.0 5.2
23:37 2.0 1.4 96 1021.6 0.0 N 1.6 0.0 5.2
23:40 2.0 1.4 96 1021.5 0.0 N 1.6 0.0 5.2
23:43 2.0 1.4 96 1021.6 0.7 N 0.7 0.0 5.2
23:47 2.0 1.6 97 1021.7 0.7 N 0.7 0.0 5.2
23:50 2.0 1.6 97 1021.5 0.7 N 0.7 0.0 5.2
23:53 2.0 1.6 97 1021.5 0.0 N 0.7 0.0 5.2
23:56 2.0 1.6 97 1021.5 0.7 N 0.7 0.0 5.2
23:58 2.0 1.6 97 1021.5 0.7 N 1.6 0.0 5.2

UK - WEATHER STATION TOPSITES - UK World Weather Websites

This is a private weather station, never base important decisions or events on data from this weather station. Although every effort has been made to make the data as accurate as possible it does not meet MetOffice standards. It is proved as a guide of local weather conditions. We accept no liability for any loss which may arise from use of the data.

Copyright © Carnkie Weather 2009 - 2018.